Wetterdaten: Mittwoch, 09.01.2019
Datum Zeit Temp. Aussen Temp. o. S. +5cm Feuchte Auss Luftdruck Regen Sonnenschein Regendauer Solar Windben Empfang
09.01.2019 00:00 4,5 C 3,9 C 2,8 C 91 % 1014,4 hPa 0,0 l/m 0 min 0 min 0 W/m 16,1 km/h (3 Bft) 95,74 %
09.01.2019 00:02 4,5 C 3,9 C 2,8 C 91 % 1014,4 hPa 0,0 l/m 0 min 0 min 0 W/m 19,3 km/h (3 Bft) 95,24 %
09.01.2019 00:04 4,4 C 3,9 C 2,8 C 91 % 1014,4 hPa 0,0 l/m 0 min 0 min 0 W/m 22,5 km/h (4 Bft) 97,87 %
09.01.2019 00:07 4,4 C 3,9 C 2,8 C 91 % 1014,3 hPa 0,0 l/m 0 min 0 min 0 W/m 25,7 km/h (4 Bft) 95,71 %
09.01.2019 00:08 4,4 C 3,9 C 2,8 C 91 % 1014,3 hPa 0,0 l/m 0 min 0 min 0 W/m 16,1 km/h (3 Bft) 95,65 %
09.01.2019 00:10 4,4 C 3,9 C 2,8 C 91 % 1014,1 hPa 0,0 l/m 0 min 0 min 0 W/m 22,5 km/h (4 Bft) 95,74 %
09.01.2019 00:12 4,4 C 3,9 C 2,8 C 91 % 1014,2 hPa 0,0 l/m 0 min 0 min 0 W/m 19,3 km/h (3 Bft) 95,74 %
09.01.2019 00:14 4,4 C 3,9 C 2,8 C 91 % 1014,1 hPa 0,0 l/m 0 min 0 min 0 W/m 19,3 km/h (3 Bft) 97,87 %
09.01.2019 00:16 4,4 C 3,9 C 2,8 C 91 % 1013,8 hPa 0,0 l/m 0 min 0 min 0 W/m 19,3 km/h (3 Bft) 95,74 %
09.01.2019 00:18 4,4 C 3,9 C 2,8 C 91 % 1014,0 hPa 0,0 l/m 0 min 0 min 0 W/m 25,7 km/h (4 Bft) 95,65 %
09.01.2019 00:20 4,4 C 3,9 C 2,8 C 91 % 1014,0 hPa 0,0 l/m 0 min 2 min 0 W/m 32,2 km/h (5 Bft) 97,87 %
09.01.2019 00:22 4,4 C 3,9 C 3,3 C 91 % 1014,3 hPa 0,0 l/m 0 min 2 min 0 W/m 38,6 km/h (5 Bft) 97,87 %
09.01.2019 00:24 4,4 C 3,9 C 3,3 C 91 % 1014,3 hPa 0,0 l/m 0 min 2 min 0 W/m 41,8 km/h (6 Bft) 97,87 %
09.01.2019 00:26 4,4 C 3,9 C 3,3 C 91 % 1014,2 hPa 0,0 l/m 0 min 2 min 0 W/m 25,7 km/h (4 Bft) 97,87 %
09.01.2019 00:28 4,4 C 3,9 C 3,3 C 91 % 1014,3 hPa 0,0 l/m 0 min 0 min 0 W/m 29,0 km/h (5 Bft) 97,87 %
09.01.2019 00:30 4,4 C 3,9 C 3,3 C 91 % 1014,2 hPa 0,0 l/m 0 min 0 min 0 W/m 32,2 km/h (5 Bft) 93,48 %
09.01.2019 00:32 4,4 C 3,9 C 3,3 C 91 % 1014,2 hPa 0,0 l/m 0 min 0 min 0 W/m 25,7 km/h (4 Bft) 100,00 %
09.01.2019 00:34 4,4 C 3,9 C 3,3 C 91 % 1014,2 hPa 0,0 l/m 0 min 0 min 0 W/m 25,7 km/h (4 Bft) 100,00 %
09.01.2019 00:36 4,4 C 3,9 C 3,3 C 91 % 1014,2 hPa 0,0 l/m 0 min 0 min 0 W/m 29,0 km/h (5 Bft) 97,87 %
09.01.2019 00:38 4,4 C 3,9 C 3,3 C 91 % 1014,1 hPa 0,0 l/m 0 min 0 min 0 W/m 32,2 km/h (5 Bft) 100,00 %
09.01.2019 00:40 4,4 C 3,9 C 3,3 C 91 % 1014,2 hPa 0,0 l/m 0 min 0 min 0 W/m 29,0 km/h (5 Bft) 100,00 %
09.01.2019 00:42 4,5 C 3,9 C 3,3 C 91 % 1014,2 hPa 0,0 l/m 0 min 0 min 0 W/m 19,3 km/h (3 Bft) 100,00 %
09.01.2019 00:44 4,5 C 3,9 C 3,3 C 91 % 1014,3 hPa 0,0 l/m 0 min 2 min 0 W/m 19,3 km/h (3 Bft) 100,00 %
09.01.2019 00:46 4,5 C 3,9 C 3,3 C 91 % 1014,1 hPa 0,0 l/m 0 min 2 min 0 W/m 25,7 km/h (4 Bft) 97,87 %
09.01.2019 00:48 4,5 C 3,9 C 3,3 C 91 % 1014,2 hPa 0,0 l/m 0 min 2 min 0 W/m 48,3 km/h (6 Bft) 100,00 %
09.01.2019 00:50 4,5 C 3,9 C 3,3 C 91 % 1014,3 hPa 0,0 l/m 0 min 2 min 0 W/m 19,3 km/h (3 Bft) 100,00 %
09.01.2019 00:52 4,5 C 3,9 C 3,3 C 92 % 1014,1 hPa 0,0 l/m 0 min 2 min 0 W/m 32,2 km/h (5 Bft) 100,00 %
09.01.2019 00:54 4,5 C 3,9 C 3,3 C 92 % 1014,2 hPa 0,0 l/m 0 min 2 min 0 W/m 19,3 km/h (3 Bft) 100,00 %
09.01.2019 00:56 4,6 C 3,9 C 3,3 C 92 % 1014,3 hPa 0,0 l/m 0 min 2 min 0 W/m 29,0 km/h (5 Bft) 100,00 %
09.01.2019 00:58 4,6 C 3,9 C 3,3 C 92 % 1014,1 hPa 0,0 l/m 0 min 2 min 0 W/m 19,3 km/h (3 Bft) 97,87 %
09.01.2019 01:00 4,6 C 3,9 C 3,3 C 92 % 1014,1 hPa 0,0 l/m 0 min 2 min 0 W/m 16,1 km/h (3 Bft) 97,87 %
09.01.2019 01:02 4,6 C 3,9 C 3,3 C 92 % 1014,1 hPa 0,0 l/m 0 min 2 min 0 W/m 16,1 km/h (3 Bft) 100,00 %
09.01.2019 01:04 4,6 C 3,9 C 3,3 C 92 % 1014,1 hPa 0,0 l/m 0 min 2 min 0 W/m 12,9 km/h (3 Bft) 100,00 %
09.01.2019 01:06 4,6 C 3,9 C 3,3 C 92 % 1014,0 hPa 0,0 l/m 0 min 2 min 0 W/m 16,1 km/h (3 Bft) 97,83 %
09.01.2019 01:08 4,6 C 3,9 C 3,3 C 92 % 1014,0 hPa 0,0 l/m 0 min 2 min 0 W/m 12,9 km/h (3 Bft) 100,00 %
09.01.2019 01:10 4,6 C 3,9 C 3,3 C 92 % 1014,0 hPa 0,0 l/m 0 min 2 min 0 W/m 25,7 km/h (4 Bft) 100,00 %
09.01.2019 01:12 4,6 C 3,9 C 3,3 C 92 % 1014,0 hPa 0,0 l/m 0 min 2 min 0 W/m 19,3 km/h (3 Bft) 97,87 %
09.01.2019 01:14 4,6 C 3,9 C 3,3 C 91 % 1014,0 hPa 0,0 l/m 0 min 2 min 0 W/m 25,7 km/h (4 Bft) 100,00 %
09.01.2019 01:16 4,6 C 3,9 C 3,3 C 91 % 1014,0 hPa 0,0 l/m 0 min 2 min 0 W/m 19,3 km/h (3 Bft) 97,87 %
09.01.2019 01:18 4,6 C 3,9 C 3,3 C 91 % 1014,0 hPa 0,0 l/m 0 min 0 min 0 W/m 12,9 km/h (3 Bft) 100,00 %
09.01.2019 01:20 4,5 C 3,9 C 3,3 C 91 % 1014,0 hPa 0,0 l/m 0 min 0 min 0 W/m 19,3 km/h (3 Bft) 100,00 %
09.01.2019 01:22 4,5 C 3,9 C 3,3 C 91 % 1014,0 hPa 0,0 l/m 0 min 0 min 0 W/m 25,7 km/h (4 Bft) 100,00 %
09.01.2019 01:24 4,5 C 3,9 C 3,3 C 91 % 1014,0 hPa 0,0 l/m 0 min 0 min 0 W/m 12,9 km/h (3 Bft) 100,00 %
09.01.2019 01:26 4,5 C 3,9 C 3,3 C 91 % 1014,0 hPa 0,0 l/m 0 min 0 min 0 W/m 29,0 km/h (5 Bft) 100,00 %
09.01.2019 01:28 4,5 C 3,9 C 3,3 C 91 % 1014,1 hPa 0,0 l/m 0 min 0 min 0 W/m 25,7 km/h (4 Bft) 100,00 %
09.01.2019 01:30 4,4 C 3,9 C 3,3 C 91 % 1013,9 hPa 0,0 l/m 0 min 0 min 0 W/m 22,5 km/h (4 Bft) 100,00 %
09.01.2019 01:32 4,4 C 3,9 C 3,3 C 91 % 1014,0 hPa 0,0 l/m 0 min 0 min 0 W/m 32,2 km/h (5 Bft) 100,00 %
09.01.2019 01:34 4,4 C 3,9 C 3,3 C 91 % 1013,9 hPa 0,0 l/m 0 min 0 min 0 W/m 19,3 km/h (3 Bft) 100,00 %
09.01.2019 01:36 4,4 C 3,9 C 3,3 C 91 % 1013,9 hPa 0,0 l/m 0 min 0 min 0 W/m 22,5 km/h (4 Bft) 100,00 %
09.01.2019 01:38 4,3 C 3,9 C 3,3 C 91 % 1013,9 hPa 0,0 l/m 0 min 0 min 0 W/m 16,1 km/h (3 Bft) 100,00 %
09.01.2019 01:40 4,3 C 3,9 C 3,3 C 91 % 1013,8 hPa 0,0 l/m 0 min 0 min 0 W/m 25,7 km/h (4 Bft) 100,00 %
09.01.2019 01:42 4,3 C 3,9 C 3,3 C 91 % 1013,8 hPa 0,0 l/m 0 min 0 min 0 W/m 22,5 km/h (4 Bft) 97,87 %
09.01.2019 01:44 4,3 C 3,9 C 2,8 C 91 % 1013,9 hPa 0,0 l/m 0 min 0 min 0 W/m 19,3 km/h (3 Bft) 97,87 %
09.01.2019 01:46 4,3 C 3,3 C 2,8 C 91 % 1013,8 hPa 0,0 l/m 0 min 0 min 0 W/m 16,1 km/h (3 Bft) 97,87 %
09.01.2019 01:48 4,2 C 3,3 C 2,8 C 91 % 1013,9 hPa 0,0 l/m 0 min 0 min 0 W/m 22,5 km/h (4 Bft) 100,00 %
09.01.2019 01:50 4,2 C 3,3 C 2,8 C 91 % 1013,9 hPa 0,0 l/m 0 min 0 min 0 W/m 25,7 km/h (4 Bft) 95,74 %
09.01.2019 01:52 4,2 C 3,3 C 2,8 C 91 % 1013,8 hPa 0,0 l/m 0 min 0 min 0 W/m 19,3 km/h (3 Bft) 97,83 %
09.01.2019 01:54 4,2 C 3,3 C 2,8 C 90 % 1013,8 hPa 0,0 l/m 0 min 0 min 0 W/m 25,7 km/h (4 Bft) 100,00 %
09.01.2019 01:56 4,2 C 3,3 C 2,8 C 90 % 1013,8 hPa 0,0 l/m 0 min 0 min 0 W/m 16,1 km/h (3 Bft) 95,74 %
09.01.2019 01:58 4,1 C 3,3 C 2,8 C 90 % 1013,9 hPa 0,0 l/m 0 min 0 min 0 W/m 19,3 km/h (3 Bft) 100,00 %
09.01.2019 02:00 4,1 C 3,3 C 2,8 C 90 % 1013,8 hPa 0,0 l/m 0 min 0 min 0 W/m 12,9 km/h (3 Bft) 95,74 %
09.01.2019 02:02 4,1 C 3,3 C 2,8 C 90 % 1013,9 hPa 0,0 l/m 0 min 0 min 0 W/m 16,1 km/h (3 Bft) 97,87 %
09.01.2019 02:04 4,1 C 3,3 C 2,8 C 90 % 1013,9 hPa 0,0 l/m 0 min 0 min 0 W/m 16,1 km/h (3 Bft) 93,48 %
09.01.2019 02:06 4,1 C 3,3 C 2,8 C 91 % 1013,9 hPa 0,0 l/m 0 min 0 min 0 W/m 12,9 km/h (3 Bft) 95,74 %
09.01.2019 02:08 4,0 C 3,3 C 2,8 C 91 % 1014,0 hPa 0,0 l/m 0 min 0 min 0 W/m 16,1 km/h (3 Bft) 93,62 %
09.01.2019 02:10 4,0 C 3,3 C 2,8 C 91 % 1014,0 hPa 0,0 l/m 0 min 0 min 0 W/m 16,1 km/h (3 Bft) 97,87 %
09.01.2019 02:12 4,0 C 3,3 C 2,8 C 91 % 1013,9 hPa 0,0 l/m 0 min 0 min 0 W/m 12,9 km/h (3 Bft) 97,87 %
09.01.2019 02:14 4,0 C 3,3 C 2,8 C 91 % 1013,8 hPa 0,0 l/m 0 min 0 min 0 W/m 6,4 km/h (2 Bft) 97,87 %
09.01.2019 02:16 4,0 C 3,3 C 2,8 C 91 % 1013,9 hPa 0,0 l/m 0 min 0 min 0 W/m 12,9 km/h (3 Bft) 97,83 %
09.01.2019 02:18 4,0 C 3,9 C 2,8 C 91 % 1014,0 hPa 0,0 l/m 0 min 0 min 0 W/m 16,1 km/h (3 Bft) 95,74 %
09.01.2019 02:20 4,0 C 3,9 C 3,3 C 91 % 1013,9 hPa 0,0 l/m 0 min 0 min 0 W/m 19,3 km/h (3 Bft) 93,62 %
09.01.2019 02:22 4,1 C 3,9 C 3,3 C 91 % 1013,9 hPa 0,0 l/m 0 min 0 min 0 W/m 16,1 km/h (3 Bft) 97,87 %
09.01.2019 02:24 4,1 C 3,9 C 3,3 C 91 % 1014,0 hPa 0,0 l/m 0 min 0 min 0 W/m 22,5 km/h (4 Bft) 97,87 %
09.01.2019 02:26 4,1 C 3,9 C 3,3 C 91 % 1014,0 hPa 0,0 l/m 0 min 0 min 0 W/m 25,7 km/h (4 Bft) 97,83 %
09.01.2019 02:28 4,1 C 3,9 C 2,8 C 91 % 1014,0 hPa 0,0 l/m 0 min 0 min 0 W/m 16,1 km/h (3 Bft) 95,74 %
09.01.2019 02:30 4,1 C 3,3 C 2,8 C 91 % 1014,0 hPa 0,0 l/m 0 min 0 min 0 W/m 12,9 km/h (3 Bft) 91,49 %
09.01.2019 02:32 4,1 C 3,3 C 2,8 C 91 % 1014,0 hPa 0,0 l/m 0 min 0 min 0 W/m 9,7 km/h (2 Bft) 93,62 %
09.01.2019 02:34 4,1 C 3,3 C 2,8 C 91 % 1013,9 hPa 0,0 l/m 0 min 0 min 0 W/m 12,9 km/h (3 Bft) 93,62 %
09.01.2019 02:36 4,1 C 3,3 C 2,8 C 91 % 1014,0 hPa 0,0 l/m 0 min 0 min 0 W/m 16,1 km/h (3 Bft) 93,62 %
09.01.2019 02:38 4,0 C 3,3 C 2,8 C 91 % 1014,0 hPa 0,0 l/m 0 min 0 min 0 W/m 12,9 km/h (3 Bft) 93,48 %
09.01.2019 02:40 4,0 C 3,3 C 2,8 C 91 % 1014,0 hPa 0,0 l/m 0 min 0 min 0 W/m 16,1 km/h (3 Bft) 93,62 %
09.01.2019 02:42 4,0 C 3,3 C 2,8 C 91 % 1014,0 hPa 0,0 l/m 0 min 0 min 0 W/m 16,1 km/h (3 Bft) 93,62 %
09.01.2019 02:44 3,9 C 3,3 C 2,8 C 91 % 1014,0 hPa 0,0 l/m 0 min 0 min 0 W/m 16,1 km/h (3 Bft) 91,49 %
09.01.2019 02:46 3,9 C 3,3 C 2,8 C 91 % 1014,0 hPa 0,0 l/m 0 min 0 min 0 W/m 16,1 km/h (3 Bft) 93,62 %
09.01.2019 02:48 3,8 C 3,3 C 2,8 C 90 % 1014,0 hPa 0,0 l/m 0 min 0 min 0 W/m 12,9 km/h (3 Bft) 93,62 %
09.01.2019 02:50 3,8 C 2,8 C 2,2 C 90 % 1014,0 hPa 0,0 l/m 0 min 0 min 0 W/m 12,9 km/h (3 Bft) 95,65 %
09.01.2019 02:52 3,8 C 2,8 C 2,2 C 90 % 1014,0 hPa 0,0 l/m 0 min 0 min 0 W/m 19,3 km/h (3 Bft) 95,74 %
09.01.2019 02:54 3,8 C 2,8 C 2,2 C 90 % 1014,0 hPa 0,0 l/m 0 min 0 min 0 W/m 19,3 km/h (3 Bft) 95,74 %
09.01.2019 02:56 3,7 C 2,8 C 2,2 C 90 % 1014,0 hPa 0,0 l/m 0 min 0 min 0 W/m 12,9 km/h (3 Bft) 95,74 %
09.01.2019 02:58 3,7 C 2,8 C 2,2 C 90 % 1014,0 hPa 0,0 l/m 0 min 0 min 0 W/m 22,5 km/h (4 Bft) 95,74 %
09.01.2019 03:00 3,7 C 2,8 C 2,2 C 90 % 1014,0 hPa 0,0 l/m 0 min 0 min 0 W/m 12,9 km/h (3 Bft) 97,87 %
09.01.2019 03:02 3,6 C 2,8 C 2,2 C 90 % 1014,0 hPa 0,0 l/m 0 min 0 min 0 W/m 16,1 km/h (3 Bft) 95,65 %
09.01.2019 03:04 3,6 C 2,8 C 2,2 C 90 % 1013,9 hPa 0,0 l/m 0 min 0 min 0 W/m 16,1 km/h (3 Bft) 95,74 %
09.01.2019 03:06 3,6 C 2,8 C 2,2 C 90 % 1014,1 hPa 0,0 l/m 0 min 0 min 0 W/m 19,3 km/h (3 Bft) 93,62 %
09.01.2019 03:08 3,6 C 2,8 C 2,2 C 90 % 1014,1 hPa 0,0 l/m 0 min 0 min 0 W/m 22,5 km/h (4 Bft) 93,62 %
09.01.2019 03:10 3,6 C 2,8 C 2,2 C 90 % 1014,1 hPa 0,0 l/m 0 min 0 min 0 W/m 16,1 km/h (3 Bft) 93,62 %
09.01.2019 03:12 3,5 C 2,8 C 2,2 C 90 % 1014,1 hPa 0,0 l/m 0 min 0 min 0 W/m 25,7 km/h (4 Bft) 95,74 %
09.01.2019 03:14 3,5 C 2,8 C 2,2 C 90 % 1014,2 hPa 0,0 l/m 0 min 0 min 0 W/m 12,9 km/h (3 Bft) 97,83 %
09.01.2019 03:16 3,5 C 2,8 C 2,2 C 90 % 1014,2 hPa 0,0 l/m 0 min 0 min 0 W/m 12,9 km/h (3 Bft) 97,87 %
09.01.2019 03:18 3,5 C 2,8 C 2,2 C 90 % 1014,3 hPa 0,0 l/m 0 min 0 min 0 W/m 12,9 km/h (3 Bft) 93,62 %
09.01.2019 03:20 3,4 C 2,8 C 2,2 C 90 % 1014,2 hPa 0,0 l/m 0 min 0 min 0 W/m 22,5 km/h (4 Bft) 97,87 %
09.01.2019 03:22 3,4 C 2,8 C 2,2 C 90 % 1014,4 hPa 0,0 l/m 0 min 0 min 0 W/m 22,5 km/h (4 Bft) 97,87 %
09.01.2019 03:24 3,4 C 2,8 C 2,2 C 90 % 1014,3 hPa 0,0 l/m 0 min 0 min 0 W/m 16,1 km/h (3 Bft) 91,49 %
09.01.2019 03:26 3,4 C 2,8 C 2,2 C 90 % 1014,3 hPa 0,0 l/m 0 min 0 min 0 W/m 19,3 km/h (3 Bft) 97,83 %
09.01.2019 03:28 3,4 C 2,8 C 2,2 C 90 % 1014,2 hPa 0,0 l/m 0 min 0 min 0 W/m 19,3 km/h (3 Bft) 95,74 %
09.01.2019 03:30 3,4 C 2,8 C 2,2 C 90 % 1014,2 hPa 0,0 l/m 0 min 0 min 0 W/m 19,3 km/h (3 Bft) 100,00 %
09.01.2019 03:32 3,5 C 2,8 C 2,2 C 90 % 1014,3 hPa 0,0 l/m 0 min 0 min 0 W/m 32,2 km/h (5 Bft) 97,87 %
09.01.2019 03:34 3,5 C 3,3 C 2,8 C 91 % 1014,2 hPa 0,0 l/m 0 min 0 min 0 W/m 16,1 km/h (3 Bft) 100,00 %
09.01.2019 03:36 3,5 C 3,3 C 2,8 C 91 % 1014,4 hPa 0,0 l/m 0 min 0 min 0 W/m 22,5 km/h (4 Bft) 100,00 %
09.01.2019 03:38 3,5 C 3,3 C 2,8 C 91 % 1014,3 hPa 0,0 l/m 0 min 0 min 0 W/m 19,3 km/h (3 Bft) 100,00 %
09.01.2019 03:40 3,6 C 3,3 C 2,8 C 91 % 1014,3 hPa 0,0 l/m 0 min 0 min 0 W/m 19,3 km/h (3 Bft) 100,00 %
09.01.2019 03:42 3,6 C 3,3 C 2,8 C 91 % 1014,3 hPa 0,0 l/m 0 min 0 min 0 W/m 32,2 km/h (5 Bft) 97,87 %
09.01.2019 03:44 3,6 C 3,3 C 2,8 C 91 % 1014,4 hPa 0,0 l/m 0 min 0 min 0 W/m 16,1 km/h (3 Bft) 100,00 %
09.01.2019 03:46 3,6 C 3,3 C 2,8 C 91 % 1014,4 hPa 0,0 l/m 0 min 0 min 0 W/m 35,4 km/h (5 Bft) 97,87 %
09.01.2019 03:48 3,6 C 3,3 C 2,2 C 91 % 1014,3 hPa 0,0 l/m 0 min 2 min 0 W/m 16,1 km/h (3 Bft) 100,00 %
09.01.2019 03:50 3,6 C 3,3 C 2,2 C 91 % 1014,4 hPa 0,0 l/m 0 min 2 min 0 W/m 19,3 km/h (3 Bft) 100,00 %
09.01.2019 03:52 3,6 C 3,3 C 2,2 C 91 % 1014,4 hPa 0,0 l/m 0 min 2 min 0 W/m 22,5 km/h (4 Bft) 97,87 %
09.01.2019 03:54 3,6 C 3,3 C 2,2 C 91 % 1014,4 hPa 0,0 l/m 0 min 2 min 0 W/m 29,0 km/h (5 Bft) 100,00 %
09.01.2019 03:56 3,6 C 3,3 C 2,2 C 91 % 1014,4 hPa 0,0 l/m 0 min 2 min 0 W/m 19,3 km/h (3 Bft) 100,00 %
09.01.2019 03:58 3,6 C 3,3 C 2,2 C 91 % 1014,4 hPa 0,0 l/m 0 min 2 min 0 W/m 25,7 km/h (4 Bft) 100,00 %
09.01.2019 04:00 3,6 C 3,3 C 2,2 C 91 % 1014,5 hPa 0,0 l/m 0 min 2 min 0 W/m 41,8 km/h (6 Bft) 97,83 %
09.01.2019 04:05 3,6 C 2,8 C 2,2 C 91 % 1014,3 hPa 0,0 l/m 0 min 0 min 0 W/m 16,1 km/h (3 Bft) 100,00 %
09.01.2019 04:06 3,6 C 2,8 C 2,2 C 91 % 1014,3 hPa 0,0 l/m 0 min 0 min 0 W/m 25,7 km/h (4 Bft) 100,00 %
09.01.2019 04:08 3,6 C 2,8 C 2,2 C 91 % 1014,3 hPa 0,0 l/m 0 min 0 min 0 W/m 22,5 km/h (4 Bft) 100,00 %
09.01.2019 04:10 3,6 C 2,8 C 2,2 C 91 % 1014,3 hPa 0,0 l/m 0 min 0 min 0 W/m 32,2 km/h (5 Bft) 100,00 %
09.01.2019 04:12 3,6 C 2,8 C 2,2 C 91 % 1014,3 hPa 0,0 l/m 0 min 0 min 0 W/m 29,0 km/h (5 Bft) 97,87 %
09.01.2019 04:14 3,6 C 2,8 C 2,2 C 91 % 1014,4 hPa 0,0 l/m 0 min 0 min 0 W/m 29,0 km/h (5 Bft) 100,00 %
09.01.2019 04:16 3,6 C 2,8 C 2,2 C 91 % 1014,4 hPa 0,0 l/m 0 min 0 min 0 W/m 22,5 km/h (4 Bft) 100,00 %
09.01.2019 04:18 3,6 C 2,8 C 2,2 C 91 % 1014,4 hPa 0,0 l/m 0 min 0 min 0 W/m 32,2 km/h (5 Bft) 98,31 %
09.01.2019 04:20 3,5 C 2,8 C 2,2 C 91 % 1014,4 hPa 0,0 l/m 0 min 0 min 0 W/m 22,5 km/h (4 Bft) 97,14 %
09.01.2019 04:22 3,5 C 2,8 C 2,2 C 91 % 1014,4 hPa 0,0 l/m 0 min 0 min 0 W/m 25,7 km/h (4 Bft) 98,31 %
09.01.2019 04:24 3,5 C 2,8 C 2,2 C 91 % 1014,4 hPa 0,0 l/m 0 min 0 min 0 W/m 32,2 km/h (5 Bft) 100,00 %
09.01.2019 04:26 3,5 C 2,8 C 2,2 C 91 % 1014,3 hPa 0,0 l/m 0 min 0 min 0 W/m 16,1 km/h (3 Bft) 100,00 %
09.01.2019 04:28 3,4 C 2,8 C 2,2 C 91 % 1014,5 hPa 0,0 l/m 0 min 0 min 0 W/m 22,5 km/h (4 Bft) 97,14 %
09.01.2019 04:30 3,4 C 2,8 C 2,2 C 91 % 1014,4 hPa 0,0 l/m 0 min 0 min 0 W/m 22,5 km/h (4 Bft) 97,87 %
09.01.2019 04:32 3,4 C 2,8 C 2,2 C 91 % 1014,5 hPa 0,0 l/m 0 min 0 min 0 W/m 22,5 km/h (4 Bft) 100,00 %
09.01.2019 04:34 3,3 C 2,2 C 1,7 C 91 % 1014,4 hPa 0,0 l/m 0 min 0 min 0 W/m 19,3 km/h (3 Bft) 100,00 %
09.01.2019 04:36 3,3 C 2,2 C 1,7 C 91 % 1014,5 hPa 0,0 l/m 0 min 0 min 0 W/m 19,3 km/h (3 Bft) 98,28 %
09.01.2019 04:38 3,3 C 2,2 C 1,7 C 91 % 1014,5 hPa 0,0 l/m 0 min 0 min 0 W/m 22,5 km/h (4 Bft) 97,87 %
09.01.2019 04:40 3,2 C 2,2 C 1,7 C 91 % 1014,5 hPa 0,0 l/m 0 min 0 min 0 W/m 12,9 km/h (3 Bft) 100,00 %
09.01.2019 04:42 3,2 C 2,2 C 1,7 C 91 % 1014,5 hPa 0,0 l/m 0 min 0 min 0 W/m 12,9 km/h (3 Bft) 97,87 %
09.01.2019 04:44 3,2 C 2,2 C 1,7 C 91 % 1014,4 hPa 0,0 l/m 0 min 0 min 0 W/m 16,1 km/h (3 Bft) 95,74 %
09.01.2019 04:46 3,1 C 2,2 C 1,7 C 91 % 1014,4 hPa 0,0 l/m 0 min 0 min 0 W/m 16,1 km/h (3 Bft) 97,87 %
09.01.2019 04:48 3,1 C 2,2 C 1,7 C 91 % 1014,5 hPa 0,0 l/m 0 min 0 min 0 W/m 16,1 km/h (3 Bft) 95,74 %
09.01.2019 04:50 3,1 C 2,2 C 1,7 C 92 % 1014,4 hPa 0,0 l/m 0 min 0 min 0 W/m 25,7 km/h (4 Bft) 97,83 %
09.01.2019 04:52 3,0 C 2,2 C 1,7 C 92 % 1014,5 hPa 0,0 l/m 0 min 0 min 0 W/m 19,3 km/h (3 Bft) 95,74 %
09.01.2019 04:54 3,0 C 2,2 C 1,7 C 92 % 1014,4 hPa 0,0 l/m 0 min 0 min 0 W/m 12,9 km/h (3 Bft) 98,31 %
09.01.2019 04:56 2,9 C 2,2 C 1,7 C 92 % 1014,4 hPa 0,0 l/m 0 min 0 min 0 W/m 12,9 km/h (3 Bft) 97,14 %
09.01.2019 04:58 2,9 C 2,2 C 1,7 C 92 % 1014,4 hPa 0,0 l/m 0 min 0 min 0 W/m 9,7 km/h (2 Bft) 98,28 %
09.01.2019 05:00 2,9 C 2,2 C 1,7 C 92 % 1014,3 hPa 0,0 l/m 0 min 0 min 0 W/m 12,9 km/h (3 Bft) 97,22 %
09.01.2019 05:02 2,9 C 1,7 C 1,7 C 92 % 1014,4 hPa 0,0 l/m 0 min 0 min 0 W/m 12,9 km/h (3 Bft) 97,87 %
09.01.2019 05:04 2,8 C 1,7 C 1,7 C 92 % 1014,3 hPa 0,0 l/m 0 min 0 min 0 W/m 12,9 km/h (3 Bft) 95,65 %
09.01.2019 05:05 2,8 C 1,7 C 1,7 C 92 % 1014,4 hPa 0,0 l/m 0 min 0 min 0 W/m 12,9 km/h (3 Bft) 99,12 %
09.01.2019 05:10 2,8 C 2,2 C 1,7 C 92 % 1014,4 hPa 0,0 l/m 0 min 0 min 0 W/m 16,1 km/h (3 Bft) 97,37 %
09.01.2019 05:12 2,8 C 2,2 C 1,7 C 92 % 1014,4 hPa 0,0 l/m 0 min 0 min 0 W/m 6,4 km/h (2 Bft) 100,00 %
09.01.2019 05:14 2,8 C 2,2 C 1,7 C 92 % 1014,4 hPa 0,0 l/m 0 min 0 min 0 W/m 12,9 km/h (3 Bft) 97,14 %
09.01.2019 05:16 2,7 C 2,2 C 1,7 C 92 % 1014,4 hPa 0,0 l/m 0 min 0 min 0 W/m 12,9 km/h (3 Bft) 98,21 %
09.01.2019 05:18 2,7 C 1,7 C 1,7 C 93 % 1014,4 hPa 0,0 l/m 0 min 0 min 0 W/m 9,7 km/h (2 Bft) 95,92 %
09.01.2019 05:20 2,7 C 1,7 C 1,7 C 93 % 1014,4 hPa 0,0 l/m 0 min 0 min 0 W/m 12,9 km/h (3 Bft) 95,74 %
09.01.2019 05:22 2,7 C 1,7 C 1,7 C 93 % 1014,3 hPa 0,0 l/m 0 min 0 min 0 W/m 16,1 km/h (3 Bft) 97,87 %
09.01.2019 05:24 2,7 C 1,7 C 1,1 C 93 % 1014,4 hPa 0,0 l/m 0 min 0 min 0 W/m 9,7 km/h (2 Bft) 97,87 %
09.01.2019 05:26 2,7 C 1,7 C 1,1 C 93 % 1014,4 hPa 0,0 l/m 0 min 0 min 0 W/m 9,7 km/h (2 Bft) 93,62 %
09.01.2019 05:28 2,6 C 1,7 C 1,1 C 93 % 1014,3 hPa 0,0 l/m 0 min 0 min 0 W/m 9,7 km/h (2 Bft) 97,14 %
09.01.2019 05:30 2,6 C 1,7 C 1,1 C 93 % 1014,3 hPa 0,0 l/m 0 min 0 min 0 W/m 6,4 km/h (2 Bft) 96,36 %
09.01.2019 05:32 2,6 C 1,7 C 1,1 C 93 % 1014,2 hPa 0,0 l/m 0 min 0 min 0 W/m 6,4 km/h (2 Bft) 98,00 %
09.01.2019 05:34 2,6 C 1,7 C 1,1 C 93 % 1014,2 hPa 0,0 l/m 0 min 0 min 0 W/m 16,1 km/h (3 Bft) 97,87 %
09.01.2019 05:36 2,6 C 1,7 C 1,1 C 93 % 1014,3 hPa 0,0 l/m 0 min 0 min 0 W/m 16,1 km/h (3 Bft) 97,87 %
09.01.2019 05:38 2,5 C 1,7 C 1,1 C 93 % 1014,2 hPa 0,0 l/m 0 min 0 min 0 W/m 6,4 km/h (2 Bft) 97,87 %
09.01.2019 05:40 2,5 C 1,7 C 1,1 C 93 % 1014,2 hPa 0,0 l/m 0 min 0 min 0 W/m 12,9 km/h (3 Bft) 97,87 %
09.01.2019 05:42 2,5 C 1,7 C 1,1 C 93 % 1014,2 hPa 0,0 l/m 0 min 0 min 0 W/m 19,3 km/h (3 Bft) 97,14 %
09.01.2019 05:44 2,4 C 1,7 C 1,1 C 93 % 1014,2 hPa 0,0 l/m 0 min 0 min 0 W/m 6,4 km/h (2 Bft) 96,36 %
09.01.2019 05:46 2,4 C 1,7 C 1,1 C 93 % 1014,2 hPa 0,0 l/m 0 min 0 min 0 W/m 3,2 km/h (1 Bft) 98,00 %
09.01.2019 05:48 2,4 C 1,7 C 1,1 C 93 % 1014,2 hPa 0,0 l/m 0 min 0 min 0 W/m 9,7 km/h (2 Bft) 97,87 %
09.01.2019 05:50 2,4 C 1,7 C 1,1 C 93 % 1014,2 hPa 0,0 l/m 0 min 0 min 0 W/m 9,7 km/h (2 Bft) 97,87 %
09.01.2019 05:52 2,4 C 1,7 C 1,1 C 93 % 1014,2 hPa 0,0 l/m 0 min 0 min 0 W/m 3,2 km/h (1 Bft) 97,87 %
09.01.2019 05:54 2,4 C 1,7 C 1,1 C 93 % 1014,2 hPa 0,0 l/m 0 min 0 min 0 W/m 6,4 km/h (2 Bft) 97,14 %
09.01.2019 05:56 2,4 C 1,7 C 1,1 C 93 % 1014,2 hPa 0,0 l/m 0 min 0 min 0 W/m 16,1 km/h (3 Bft) 100,00 %
09.01.2019 05:58 2,3 C 1,7 C 1,1 C 94 % 1014,2 hPa 0,0 l/m 0 min 0 min 0 W/m 12,9 km/h (3 Bft) 100,00 %
09.01.2019 06:00 2,3 C 1,7 C 1,1 C 94 % 1014,2 hPa 0,0 l/m 0 min 0 min 0 W/m 12,9 km/h (3 Bft) 97,87 %
09.01.2019 06:02 2,3 C 1,7 C 1,1 C 94 % 1014,2 hPa 0,0 l/m 0 min 0 min 0 W/m 12,9 km/h (3 Bft) 100,00 %
09.01.2019 06:04 2,3 C 1,7 C 1,1 C 94 % 1014,2 hPa 0,0 l/m 0 min 0 min 0 W/m 9,7 km/h (2 Bft) 100,00 %
09.01.2019 06:08 2,3 C 1,7 C 1,1 C 94 % 1014,3 hPa 0,0 l/m 0 min 0 min 0 W/m 16,1 km/h (3 Bft) 96,77 %
09.01.2019 06:10 2,3 C 1,7 C 1,1 C 94 % 1014,3 hPa 0,0 l/m 0 min 0 min 0 W/m 9,7 km/h (2 Bft) 97,87 %
09.01.2019 06:12 2,3 C 1,7 C 1,1 C 94 % 1014,3 hPa 0,0 l/m 0 min 0 min 0 W/m 16,1 km/h (3 Bft) 97,62 %
09.01.2019 06:14 2,3 C 1,7 C 1,1 C 94 % 1014,3 hPa 0,0 l/m 0 min 0 min 0 W/m 12,9 km/h (3 Bft) 98,00 %
09.01.2019 06:16 2,3 C 1,7 C 1,1 C 94 % 1014,3 hPa 0,0 l/m 0 min 0 min 0 W/m 12,9 km/h (3 Bft) 97,96 %
09.01.2019 06:18 2,2 C 1,7 C 1,1 C 94 % 1014,3 hPa 0,0 l/m 0 min 0 min 0 W/m 9,7 km/h (2 Bft) 97,87 %
09.01.2019 06:20 2,2 C 1,1 C 1,1 C 94 % 1014,3 hPa 0,0 l/m 0 min 0 min 0 W/m 9,7 km/h (2 Bft) 97,56 %
09.01.2019 06:22 2,2 C 1,1 C 1,1 C 94 % 1014,3 hPa 0,0 l/m 0 min 0 min 0 W/m 6,4 km/h (2 Bft) 98,00 %
09.01.2019 06:24 2,2 C 1,1 C 1,1 C 94 % 1014,3 hPa 0,0 l/m 0 min 0 min 0 W/m 12,9 km/h (3 Bft) 97,87 %
09.01.2019 06:26 2,2 C 1,1 C 1,1 C 94 % 1014,3 hPa 0,0 l/m 0 min 0 min 0 W/m 19,3 km/h (3 Bft) 97,87 %
09.01.2019 06:28 2,2 C 1,7 C 1,1 C 94 % 1014,4 hPa 0,0 l/m 0 min 0 min 0 W/m 19,3 km/h (3 Bft) 97,96 %
09.01.2019 06:30 2,2 C 1,7 C 1,1 C 94 % 1014,4 hPa 0,0 l/m 0 min 0 min 0 W/m 19,3 km/h (3 Bft) 97,87 %
09.01.2019 06:32 2,2 C 1,7 C 1,1 C 94 % 1014,4 hPa 0,0 l/m 0 min 0 min 0 W/m 6,4 km/h (2 Bft) 97,83 %
09.01.2019 06:34 2,2 C 1,7 C 1,1 C 94 % 1014,4 hPa 0,0 l/m 0 min 0 min 0 W/m 16,1 km/h (3 Bft) 97,87 %
09.01.2019 06:36 2,2 C 1,7 C 1,1 C 94 % 1014,4 hPa 0,0 l/m 0 min 0 min 0 W/m 9,7 km/h (2 Bft) 98,11 %
09.01.2019 06:38 2,2 C 1,7 C 1,1 C 94 % 1014,4 hPa 0,0 l/m 0 min 0 min 0 W/m 9,7 km/h (2 Bft) 97,22 %
09.01.2019 06:40 2,2 C 1,7 C 1,1 C 94 % 1014,4 hPa 0,0 l/m 0 min 0 min 0 W/m 12,9 km/h (3 Bft) 97,83 %
09.01.2019 06:42 2,2 C 1,7 C 1,1 C 94 % 1014,3 hPa 0,0 l/m 0 min 0 min 0 W/m 16,1 km/h (3 Bft) 97,87 %
09.01.2019 06:44 2,1 C 1,1 C 1,1 C 94 % 1014,3 hPa 0,0 l/m 0 min 0 min 0 W/m 12,9 km/h (3 Bft) 98,00 %
09.01.2019 06:46 2,1 C 1,7 C 1,1 C 94 % 1014,3 hPa 0,0 l/m 0 min 0 min 0 W/m 25,7 km/h (4 Bft) 97,96 %
09.01.2019 06:48 2,1 C 1,7 C 1,1 C 94 % 1014,4 hPa 0,0 l/m 0 min 0 min 0 W/m 19,3 km/h (3 Bft) 95,74 %
09.01.2019 06:50 2,1 C 1,7 C 1,1 C 94 % 1014,4 hPa 0,0 l/m 0 min 0 min 0 W/m 12,9 km/h (3 Bft) 97,87 %
09.01.2019 06:52 2,1 C 1,7 C 1,1 C 94 % 1014,4 hPa 0,0 l/m 0 min 0 min 0 W/m 12,9 km/h (3 Bft) 97,87 %
09.01.2019 06:54 2,1 C 1,7 C 1,1 C 94 % 1014,4 hPa 0,0 l/m 0 min 0 min 0 W/m 9,7 km/h (2 Bft) 97,56 %
09.01.2019 06:56 2,1 C 1,7 C 1,1 C 94 % 1014,3 hPa 0,0 l/m 0 min 0 min 0 W/m 16,1 km/h (3 Bft) 96,00 %
09.01.2019 06:58 2,1 C 1,1 C 1,1 C 94 % 1014,3 hPa 0,0 l/m 0 min 0 min 0 W/m 9,7 km/h (2 Bft) 97,87 %
09.01.2019 07:00 2,1 C 1,1 C 1,1 C 94 % 1014,3 hPa 0,0 l/m 0 min 0 min 0 W/m 12,9 km/h (3 Bft) 97,96 %
09.01.2019 07:02 2,1 C 1,1 C 1,1 C 94 % 1014,3 hPa 0,0 l/m 0 min 0 min 0 W/m 9,7 km/h (2 Bft) 97,87 %
09.01.2019 07:04 2,1 C 1,1 C 1,1 C 94 % 1014,3 hPa 0,0 l/m 0 min 0 min 0 W/m 3,2 km/h (1 Bft) 95,74 %
09.01.2019 07:06 2,1 C 1,1 C 1,1 C 94 % 1014,4 hPa 0,0 l/m 0 min 0 min 0 W/m 6,4 km/h (2 Bft) 93,48 %
09.01.2019 07:08 2,1 C 1,1 C 0,6 C 94 % 1014,3 hPa 0,0 l/m 0 min 0 min 0 W/m 16,1 km/h (3 Bft) 97,87 %
09.01.2019 07:10 2,1 C 1,1 C 1,1 C 94 % 1014,4 hPa 0,0 l/m 0 min 0 min 0 W/m 12,9 km/h (3 Bft) 97,87 %
09.01.2019 07:12 2,1 C 1,1 C 0,6 C 94 % 1014,4 hPa 0,0 l/m 0 min 0 min 0 W/m 12,9 km/h (3 Bft) 97,87 %
09.01.2019 07:14 2,0 C 1,1 C 0,6 C 94 % 1014,4 hPa 0,0 l/m 0 min 0 min 0 W/m 9,7 km/h (2 Bft) 95,24 %
09.01.2019 07:16 2,0 C 1,1 C 0,6 C 94 % 1014,4 hPa 0,0 l/m 0 min 0 min 0 W/m 12,9 km/h (3 Bft) 93,48 %
09.01.2019 07:18 2,0 C 1,1 C 0,6 C 94 % 1014,4 hPa 0,0 l/m 0 min 0 min 0 W/m 9,7 km/h (2 Bft) 96,00 %
09.01.2019 07:20 2,0 C 1,1 C 0,6 C 94 % 1014,4 hPa 0,0 l/m 0 min 0 min 0 W/m 19,3 km/h (3 Bft) 97,96 %
09.01.2019 07:22 2,0 C 1,1 C 0,6 C 94 % 1014,4 hPa 0,0 l/m 0 min 0 min 0 W/m 9,7 km/h (2 Bft) 93,62 %
09.01.2019 07:24 2,0 C 1,1 C 0,6 C 94 % 1014,4 hPa 0,0 l/m 0 min 0 min 0 W/m 12,9 km/h (3 Bft) 95,24 %
09.01.2019 07:26 1,9 C 1,1 C 0,6 C 94 % 1014,5 hPa 0,0 l/m 0 min 0 min 0 W/m 6,4 km/h (2 Bft) 95,92 %
09.01.2019 07:28 1,9 C 1,1 C 0,6 C 94 % 1014,5 hPa 0,0 l/m 0 min 0 min 0 W/m 25,7 km/h (4 Bft) 96,00 %
09.01.2019 07:30 1,9 C 1,1 C 0,6 C 94 % 1014,4 hPa 0,0 l/m 0 min 0 min 0 W/m 9,7 km/h (2 Bft) 97,83 %
09.01.2019 07:32 1,9 C 1,1 C 0,6 C 94 % 1014,5 hPa 0,0 l/m 0 min 0 min 0 W/m 16,1 km/h (3 Bft) 97,87 %
09.01.2019 07:34 1,9 C 1,1 C 0,6 C 94 % 1014,4 hPa 0,0 l/m 0 min 0 min 0 W/m 12,9 km/h (3 Bft) 97,62 %
09.01.2019 07:36 1,9 C 1,1 C 0,6 C 94 % 1014,4 hPa 0,0 l/m 0 min 0 min 0 W/m 19,3 km/h (3 Bft) 96,55 %
09.01.2019 07:38 1,9 C 1,1 C 0,6 C 95 % 1014,5 hPa 0,0 l/m 0 min 0 min 0 W/m 9,7 km/h (2 Bft) 97,14 %
09.01.2019 07:40 1,9 C 1,1 C 0,6 C 95 % 1014,5 hPa 0,0 l/m 0 min 0 min 0 W/m 6,4 km/h (2 Bft) 97,87 %
09.01.2019 07:42 1,9 C 1,1 C 0,6 C 95 % 1014,5 hPa 0,0 l/m 0 min 0 min 0 W/m 6,4 km/h (2 Bft) 97,87 %
09.01.2019 07:44 1,9 C 1,1 C 0,6 C 95 % 1014,5 hPa 0,0 l/m 0 min 0 min 0 W/m 9,7 km/h (2 Bft) 97,87 %
09.01.2019 07:46 1,9 C 1,1 C 0,6 C 95 % 1014,5 hPa 0,0 l/m 0 min 0 min 0 W/m 12,9 km/h (3 Bft) 100,00 %
09.01.2019 07:48 1,9 C 1,1 C 0,6 C 95 % 1014,5 hPa 0,0 l/m 0 min 0 min 0 W/m 12,9 km/h (3 Bft) 100,00 %
09.01.2019 07:50 1,9 C 1,1 C 0,6 C 95 % 1014,5 hPa 0,0 l/m 0 min 0 min 0 W/m 9,7 km/h (2 Bft) 100,00 %
09.01.2019 07:52 1,8 C 1,1 C 0,6 C 95 % 1014,6 hPa 0,0 l/m 0 min 0 min 0 W/m 9,7 km/h (2 Bft) 97,87 %
09.01.2019 07:54 1,9 C 1,1 C 0,6 C 95 % 1014,6 hPa 0,0 l/m 0 min 0 min 0 W/m 9,7 km/h (2 Bft) 97,56 %
09.01.2019 07:56 1,8 C 1,1 C 0,6 C 95 % 1014,6 hPa 0,0 l/m 0 min 0 min 0 W/m 9,7 km/h (2 Bft) 98,00 %
09.01.2019 07:58 1,8 C 1,1 C 0,6 C 95 % 1014,6 hPa 0,0 l/m 0 min 0 min 0 W/m 12,9 km/h (3 Bft) 97,96 %
09.01.2019 08:00 1,8 C 1,1 C 0,6 C 95 % 1014,6 hPa 0,0 l/m 0 min 0 min 0 W/m 12,9 km/h (3 Bft) 97,87 %
09.01.2019 08:02 1,8 C 1,1 C 0,6 C 95 % 1014,7 hPa 0,0 l/m 0 min 0 min 0 W/m 6,4 km/h (2 Bft) 95,12 %
09.01.2019 08:04 1,8 C 1,1 C 0,6 C 95 % 1014,7 hPa 0,0 l/m 0 min 0 min 0 W/m 9,7 km/h (2 Bft) 96,00 %
09.01.2019 08:06 1,8 C 1,1 C 0,6 C 95 % 1014,7 hPa 0,0 l/m 0 min 0 min 0 W/m 9,7 km/h (2 Bft) 95,92 %
09.01.2019 08:08 1,8 C 1,1 C 0,6 C 95 % 1014,7 hPa 0,0 l/m 0 min 0 min 0 W/m 6,4 km/h (2 Bft) 95,74 %
09.01.2019 08:10 1,8 C 1,1 C 0,6 C 95 % 1014,7 hPa 0,0 l/m 0 min 0 min 0 W/m 16,1 km/h (3 Bft) 40,00 %
09.01.2019 08:12 1,8 C 1,1 C 0,6 C 95 % 1014,8 hPa 0,0 l/m 0 min 0 min 0 W/m 12,9 km/h (3 Bft) 93,62 %
09.01.2019 08:14 1,8 C 1,1 C 0,6 C 95 % 1014,8 hPa 0,0 l/m 0 min 0 min 0 W/m 16,1 km/h (3 Bft) 97,87 %
09.01.2019 08:16 1,8 C 1,1 C 0,6 C 95 % 1014,8 hPa 0,0 l/m 0 min 0 min 0 W/m 12,9 km/h (3 Bft) 86,96 %
09.01.2019 08:18 1,8 C 1,1 C 0,6 C 95 % 1014,8 hPa 0,0 l/m 0 min 0 min 0 W/m 12,9 km/h (3 Bft) 97,62 %
09.01.2019 08:20 1,8 C 1,1 C 0,6 C 95 % 1014,8 hPa 0,0 l/m 0 min 0 min 0 W/m 0,0 km/h (0 Bft) 96,00 %
09.01.2019 08:22 1,8 C 1,1 C 0,6 C 95 % 1014,9 hPa 0,0 l/m 0 min 0 min 0 W/m 16,1 km/h (3 Bft) 95,92 %
09.01.2019 08:24 1,8 C 1,1 C 0,6 C 95 % 1014,9 hPa 0,0 l/m 0 min 0 min 0 W/m 6,4 km/h (2 Bft) 97,87 %
09.01.2019 08:26 1,8 C 1,1 C 0,6 C 95 % 1014,9 hPa 0,0 l/m 0 min 0 min 0 W/m 9,7 km/h (2 Bft) 97,87 %
09.01.2019 08:28 1,8 C 1,1 C 0,6 C 95 % 1015,0 hPa 0,0 l/m 0 min 0 min 0 W/m 6,4 km/h (2 Bft) 97,56 %
09.01.2019 08:30 1,8 C 1,1 C 0,6 C 95 % 1015,0 hPa 0,0 l/m 0 min 0 min 0 W/m 6,4 km/h (2 Bft) 96,00 %
09.01.2019 08:32 1,8 C 1,1 C 0,6 C 95 % 1015,0 hPa 0,0 l/m 0 min 0 min 0 W/m 9,7 km/h (2 Bft) 97,87 %
09.01.2019 08:34 1,8 C 1,1 C 0,6 C 95 % 1015,0 hPa 0,0 l/m 0 min 0 min 0 W/m 9,7 km/h (2 Bft) 97,87 %
09.01.2019 08:36 1,8 C 1,1 C 0,6 C 95 % 1015,0 hPa 0,0 l/m 0 min 0 min 0 W/m 12,9 km/h (3 Bft) 95,92 %
09.01.2019 08:38 1,8 C 1,1 C 1,1 C 95 % 1015,0 hPa 0,0 l/m 0 min 0 min 0 W/m 12,9 km/h (3 Bft) 100,00 %
09.01.2019 08:40 1,8 C 1,1 C 1,1 C 95 % 1015,0 hPa 0,0 l/m 0 min 0 min 0 W/m 6,4 km/h (2 Bft) 97,83 %
09.01.2019 08:42 1,9 C 1,7 C 1,1 C 95 % 1015,0 hPa 0,0 l/m 0 min 0 min 1 W/m 12,9 km/h (3 Bft) 100,00 %
09.01.2019 08:44 1,9 C 1,7 C 1,1 C 95 % 1015,1 hPa 0,0 l/m 0 min 0 min 6 W/m 16,1 km/h (3 Bft) 97,62 %
09.01.2019 08:46 1,9 C 1,7 C 1,1 C 95 % 1015,1 hPa 0,0 l/m 0 min 0 min 9 W/m 19,3 km/h (3 Bft) 100,00 %
09.01.2019 08:48 2,0 C 1,7 C 1,1 C 95 % 1015,1 hPa 0,0 l/m 0 min 0 min 10 W/m 19,3 km/h (3 Bft) 100,00 %
09.01.2019 08:50 2,0 C 1,7 C 1,1 C 95 % 1015,0 hPa 0,0 l/m 0 min 0 min 9 W/m 16,1 km/h (3 Bft) 97,87 %
09.01.2019 08:52 2,1 C 1,7 C 1,1 C 95 % 1015,0 hPa 0,0 l/m 0 min 0 min 9 W/m 9,7 km/h (2 Bft) 97,96 %
09.01.2019 08:54 2,1 C 1,7 C 1,1 C 95 % 1015,1 hPa 0,0 l/m 0 min 0 min 9 W/m 16,1 km/h (3 Bft) 97,87 %
09.01.2019 08:56 2,1 C 1,7 C 1,1 C 96 % 1015,1 hPa 0,0 l/m 0 min 0 min 8 W/m 16,1 km/h (3 Bft) 97,87 %
09.01.2019 08:58 2,1 C 1,7 C 1,1 C 96 % 1015,1 hPa 0,0 l/m 0 min 0 min 9 W/m 9,7 km/h (2 Bft) 100,00 %
09.01.2019 09:00 2,1 C 1,7 C 1,1 C 96 % 1015,1 hPa 0,0 l/m 0 min 0 min 9 W/m 12,9 km/h (3 Bft) 100,00 %
09.01.2019 09:02 2,1 C 1,7 C 1,1 C 96 % 1015,2 hPa 0,0 l/m 0 min 0 min 11 W/m 3,2 km/h (1 Bft) 100,00 %
09.01.2019 09:04 2,1 C 1,7 C 1,1 C 96 % 1015,2 hPa 0,0 l/m 0 min 0 min 11 W/m 6,4 km/h (2 Bft) 100,00 %
09.01.2019 09:06 2,1 C 1,7 C 1,1 C 96 % 1015,1 hPa 0,0 l/m 0 min 0 min 11 W/m 9,7 km/h (2 Bft) 98,00 %
09.01.2019 09:08 2,1 C 1,7 C 1,1 C 96 % 1015,2 hPa 0,0 l/m 0 min 0 min 12 W/m 12,9 km/h (3 Bft) 97,87 %
09.01.2019 09:10 2,1 C 1,7 C 1,1 C 96 % 1015,3 hPa 0,0 l/m 0 min 0 min 12 W/m 6,4 km/h (2 Bft) 100,00 %
09.01.2019 09:12 2,1 C 1,7 C 1,1 C 96 % 1015,3 hPa 0,0 l/m 0 min 0 min 12 W/m 3,2 km/h (1 Bft) 97,96 %
09.01.2019 09:14 2,1 C 1,7 C 1,1 C 96 % 1015,3 hPa 0,0 l/m 0 min 0 min 18 W/m 9,7 km/h (2 Bft) 97,87 %
09.01.2019 09:16 2,1 C 1,7 C 1,1 C 95 % 1015,4 hPa 0,0 l/m 0 min 0 min 20 W/m 12,9 km/h (3 Bft) 100,00 %
09.01.2019 09:18 2,1 C 1,7 C 1,1 C 95 % 1015,4 hPa 0,0 l/m 0 min 0 min 21 W/m 6,4 km/h (2 Bft) 100,00 %
09.01.2019 09:20 2,1 C 1,7 C 1,1 C 95 % 1015,4 hPa 0,0 l/m 0 min 0 min 23 W/m 6,4 km/h (2 Bft) 100,00 %
09.01.2019 09:22 2,0 C 1,7 C 1,1 C 95 % 1015,4 hPa 0,0 l/m 0 min 0 min 24 W/m 6,4 km/h (2 Bft) 97,87 %
09.01.2019 09:24 2,0 C 1,7 C 1,1 C 95 % 1015,5 hPa 0,0 l/m 0 min 0 min 25 W/m 6,4 km/h (2 Bft) 97,96 %
09.01.2019 09:26 2,0 C 1,7 C 1,1 C 95 % 1015,5 hPa 0,0 l/m 0 min 0 min 27 W/m 0,0 km/h (0 Bft) 100,00 %
09.01.2019 09:28 2,0 C 1,7 C 1,1 C 95 % 1015,4 hPa 0,0 l/m 0 min 0 min 29 W/m 0,0 km/h (0 Bft) 97,87 %
09.01.2019 09:30 2,0 C 1,7 C 1,1 C 95 % 1015,6 hPa 0,0 l/m 0 min 0 min 31 W/m 3,2 km/h (1 Bft) 100,00 %
09.01.2019 09:32 2,0 C 1,7 C 1,1 C 95 % 1015,5 hPa 0,0 l/m 0 min 0 min 34 W/m 3,2 km/h (1 Bft) 97,87 %
09.01.2019 09:34 2,1 C 2,2 C 1,1 C 95 % 1015,5 hPa 0,0 l/m 0 min 0 min 38 W/m 16,1 km/h (3 Bft) 97,96 %
09.01.2019 09:36 2,1 C 2,2 C 1,1 C 96 % 1015,5 hPa 0,0 l/m 0 min 0 min 46 W/m 12,9 km/h (3 Bft) 97,87 %
09.01.2019 09:38 2,1 C 2,2 C 1,7 C 96 % 1015,6 hPa 0,0 l/m 0 min 0 min 59 W/m 16,1 km/h (3 Bft) 95,74 %
09.01.2019 09:40 2,1 C 2,8 C 1,7 C 96 % 1015,6 hPa 0,0 l/m 2 min 0 min 67 W/m 16,1 km/h (3 Bft) 95,74 %
09.01.2019 09:42 2,2 C 2,8 C 1,7 C 96 % 1015,7 hPa 0,0 l/m 0 min 0 min 37 W/m 6,4 km/h (2 Bft) 95,92 %
09.01.2019 09:44 2,2 C 2,2 C 1,7 C 96 % 1015,8 hPa 0,0 l/m 0 min 0 min 35 W/m 16,1 km/h (3 Bft) 95,74 %
09.01.2019 09:46 2,2 C 2,8 C 1,7 C 96 % 1015,7 hPa 0,0 l/m 0 min 0 min 53 W/m 19,3 km/h (3 Bft) 93,62 %
09.01.2019 09:48 2,2 C 2,8 C 1,7 C 96 % 1015,8 hPa 0,0 l/m 0 min 0 min 52 W/m 16,1 km/h (3 Bft) 95,12 %
09.01.2019 09:50 2,3 C 2,8 C 1,7 C 96 % 1015,8 hPa 0,0 l/m 0 min 0 min 42 W/m 6,4 km/h (2 Bft) 95,74 %
09.01.2019 09:52 2,3 C 2,8 C 1,7 C 96 % 1015,8 hPa 0,0 l/m 0 min 0 min 38 W/m 25,7 km/h (4 Bft) 97,87 %
09.01.2019 09:54 2,3 C 2,8 C 1,7 C 96 % 1015,9 hPa 0,0 l/m 0 min 0 min 35 W/m 12,9 km/h (3 Bft) 96,00 %
09.01.2019 09:56 2,3 C 2,8 C 1,7 C 96 % 1015,8 hPa 0,0 l/m 0 min 0 min 45 W/m 12,9 km/h (3 Bft) 95,92 %
09.01.2019 09:58 2,4 C 2,8 C 1,7 C 96 % 1015,8 hPa 0,0 l/m 0 min 0 min 50 W/m 12,9 km/h (3 Bft) 95,74 %
09.01.2019 10:00 2,4 C 3,3 C 1,7 C 96 % 1015,9 hPa 0,0 l/m 2 min 0 min 86 W/m 9,7 km/h (2 Bft) 95,74 %
09.01.2019 10:02 2,4 C 3,3 C 1,7 C 96 % 1015,9 hPa 0,0 l/m 2 min 0 min 97 W/m 16,1 km/h (3 Bft) 93,48 %
09.01.2019 10:04 2,4 C 3,9 C 1,7 C 96 % 1016,0 hPa 0,0 l/m 0 min 0 min 77 W/m 9,7 km/h (2 Bft) 95,74 %
09.01.2019 10:06 2,4 C 4,4 C 1,7 C 96 % 1016,0 hPa 0,0 l/m 0 min 0 min 57 W/m 16,1 km/h (3 Bft) 88,68 %
09.01.2019 10:08 2,5 C 4,4 C 1,7 C 96 % 1016,0 hPa 0,0 l/m 0 min 0 min 74 W/m 12,9 km/h (3 Bft) 97,30 %
09.01.2019 10:10 2,5 C 5,0 C 1,7 C 96 % 1016,1 hPa 0,0 l/m 2 min 0 min 95 W/m 12,9 km/h (3 Bft) 93,48 %
09.01.2019 10:12 2,6 C 5,6 C 1,7 C 96 % 1016,1 hPa 0,0 l/m 2 min 0 min 108 W/m 9,7 km/h (2 Bft) 96,00 %
09.01.2019 10:14 2,6 C 5,6 C 1,7 C 96 % 1016,1 hPa 0,0 l/m 0 min 0 min 94 W/m 22,5 km/h (4 Bft) 93,62 %
09.01.2019 10:16 2,7 C 5,6 C 1,7 C 96 % 1016,2 hPa 0,0 l/m 2 min 0 min 116 W/m 19,3 km/h (3 Bft) 89,58 %
09.01.2019 10:18 2,7 C 6,1 C 1,7 C 96 % 1016,2 hPa 0,0 l/m 2 min 0 min 119 W/m 16,1 km/h (3 Bft) 100,00 %
09.01.2019 10:20 2,7 C 6,7 C 2,2 C 96 % 1016,2 hPa 0,0 l/m 2 min 0 min 104 W/m 12,9 km/h (3 Bft) 98,15 %
09.01.2019 10:22 2,8 C 6,7 C 2,2 C 96 % 1016,3 hPa 0,0 l/m 2 min 0 min 139 W/m 19,3 km/h (3 Bft) 93,48 %
09.01.2019 10:24 2,8 C 6,7 C 2,2 C 96 % 1016,3 hPa 0,0 l/m 2 min 0 min 148 W/m 16,1 km/h (3 Bft) 95,74 %
09.01.2019 10:26 2,9 C 6,7 C 2,2 C 96 % 1016,2 hPa 0,0 l/m 2 min 0 min 152 W/m 19,3 km/h (3 Bft) 92,00 %
09.01.2019 10:28 3,0 C 6,7 C 2,2 C 96 % 1016,2 hPa 0,0 l/m 2 min 0 min 156 W/m 22,5 km/h (4 Bft) 87,23 %
09.01.2019 10:30 3,1 C 7,2 C 2,2 C 96 % 1016,2 hPa 0,0 l/m 2 min 0 min 168 W/m 22,5 km/h (4 Bft) 91,49 %
09.01.2019 10:32 3,1 C 7,8 C 2,2 C 96 % 1016,3 hPa 0,0 l/m 2 min 0 min 170 W/m 12,9 km/h (3 Bft) 93,48 %
09.01.2019 10:34 3,2 C 8,3 C 2,2 C 96 % 1016,3 hPa 0,0 l/m 2 min 0 min 173 W/m 16,1 km/h (3 Bft) 97,87 %
09.01.2019 10:36 3,2 C 8,3 C 2,2 C 96 % 1016,3 hPa 0,0 l/m 2 min 0 min 176 W/m 19,3 km/h (3 Bft) 95,74 %
09.01.2019 10:38 3,3 C 8,3 C 2,2 C 95 % 1016,3 hPa 0,0 l/m 2 min 0 min 180 W/m 25,7 km/h (4 Bft) 95,74 %
09.01.2019 10:40 3,3 C 8,3 C 2,2 C 95 % 1016,3 hPa 0,0 l/m 2 min 0 min 181 W/m 16,1 km/h (3 Bft) 95,74 %
09.01.2019 10:42 3,4 C 8,9 C 2,2 C 95 % 1016,3 hPa 0,0 l/m 2 min 0 min 149 W/m 19,3 km/h (3 Bft) 95,92 %
09.01.2019 10:44 3,5 C 8,9 C 2,8 C 95 % 1016,3 hPa 0,0 l/m 2 min 0 min 177 W/m 29,0 km/h (5 Bft) 97,87 %
09.01.2019 10:46 3,5 C 8,9 C 2,8 C 95 % 1016,3 hPa 0,0 l/m 2 min 0 min 189 W/m 19,3 km/h (3 Bft) 95,74 %
09.01.2019 10:48 3,6 C 8,3 C 2,8 C 95 % 1016,4 hPa 0,0 l/m 2 min 0 min 189 W/m 16,1 km/h (3 Bft) 97,56 %
09.01.2019 10:50 3,7 C 8,9 C 2,8 C 95 % 1016,4 hPa 0,0 l/m 2 min 0 min 159 W/m 19,3 km/h (3 Bft) 97,87 %
09.01.2019 10:52 3,8 C 8,3 C 2,8 C 95 % 1016,4 hPa 0,0 l/m 2 min 0 min 149 W/m 19,3 km/h (3 Bft) 98,00 %
09.01.2019 10:54 3,8 C 7,8 C 2,8 C 95 % 1016,4 hPa 0,0 l/m 2 min 0 min 155 W/m 16,1 km/h (3 Bft) 95,92 %
09.01.2019 10:56 3,9 C 8,3 C 2,8 C 94 % 1016,4 hPa 0,0 l/m 0 min 0 min 119 W/m 22,5 km/h (4 Bft) 100,00 %
09.01.2019 10:58 3,9 C 8,3 C 2,8 C 94 % 1016,4 hPa 0,0 l/m 0 min 0 min 118 W/m 16,1 km/h (3 Bft) 100,00 %
09.01.2019 11:00 4,0 C 8,3 C 2,8 C 94 % 1016,4 hPa 0,0 l/m 2 min 0 min 184 W/m 16,1 km/h (3 Bft) 100,00 %
09.01.2019 11:02 4,1 C 7,8 C 2,8 C 94 % 1016,4 hPa 0,0 l/m 2 min 0 min 158 W/m 19,3 km/h (3 Bft) 100,00 %
09.01.2019 11:04 4,2 C 7,8 C 3,3 C 94 % 1016,4 hPa 0,0 l/m 2 min 0 min 170 W/m 16,1 km/h (3 Bft) 98,00 %
09.01.2019 11:06 4,2 C 7,8 C 3,3 C 93 % 1016,4 hPa 0,0 l/m 2 min 0 min 165 W/m 16,1 km/h (3 Bft) 100,00 %
09.01.2019 11:08 4,3 C 8,3 C 3,3 C 93 % 1016,4 hPa 0,0 l/m 2 min 0 min 152 W/m 25,7 km/h (4 Bft) 100,00 %
09.01.2019 11:10 4,3 C 7,8 C 3,3 C 93 % 1016,4 hPa 0,0 l/m 2 min 0 min 152 W/m 29,0 km/h (5 Bft) 100,00 %
09.01.2019 11:12 4,4 C 7,8 C 3,3 C 93 % 1016,4 hPa 0,0 l/m 2 min 0 min 203 W/m 22,5 km/h (4 Bft) 100,00 %
09.01.2019 11:14 4,4 C 8,3 C 3,3 C 92 % 1016,4 hPa 0,0 l/m 2 min 0 min 177 W/m 22,5 km/h (4 Bft) 100,00 %
09.01.2019 11:16 4,5 C 8,3 C 3,9 C 92 % 1016,4 hPa 0,0 l/m 2 min 0 min 237 W/m 22,5 km/h (4 Bft) 100,00 %
09.01.2019 11:18 4,6 C 8,9 C 3,9 C 92 % 1016,4 hPa 0,0 l/m 2 min 0 min 252 W/m 25,7 km/h (4 Bft) 97,62 %
09.01.2019 11:20 4,7 C 7,8 C 3,9 C 92 % 1016,4 hPa 0,0 l/m 2 min 0 min 148 W/m 29,0 km/h (5 Bft) 100,00 %
09.01.2019 11:22 4,7 C 6,7 C 3,3 C 91 % 1016,4 hPa 0,0 l/m 0 min 0 min 80 W/m 25,7 km/h (4 Bft) 100,00 %
09.01.2019 11:24 4,7 C 7,2 C 3,3 C 91 % 1016,3 hPa 0,0 l/m 0 min 0 min 142 W/m 22,5 km/h (4 Bft) 100,00 %
09.01.2019 11:26 4,7 C 8,3 C 3,9 C 90 % 1016,4 hPa 0,0 l/m 2 min 0 min 238 W/m 19,3 km/h (3 Bft) 100,00 %
09.01.2019 11:28 4,8 C 10,0 C 3,9 C 90 % 1016,3 hPa 0,0 l/m 2 min 0 min 284 W/m 16,1 km/h (3 Bft) 100,00 %
09.01.2019 11:30 4,8 C 9,4 C 3,9 C 90 % 1016,3 hPa 0,0 l/m 2 min 0 min 278 W/m 32,2 km/h (5 Bft) 100,00 %
09.01.2019 11:32 4,9 C 10,0 C 3,9 C 90 % 1016,3 hPa 0,0 l/m 2 min 0 min 272 W/m 25,7 km/h (4 Bft) 100,00 %
09.01.2019 11:34 4,9 C 8,3 C 3,9 C 89 % 1016,3 hPa 0,0 l/m 2 min 0 min 181 W/m 19,3 km/h (3 Bft) 98,00 %
09.01.2019 11:36 4,9 C 7,8 C 3,9 C 89 % 1016,3 hPa 0,0 l/m 0 min 0 min 130 W/m 29,0 km/h (5 Bft) 97,96 %
09.01.2019 11:38 5,0 C 8,9 C 3,9 C 89 % 1016,3 hPa 0,0 l/m 2 min 0 min 150 W/m 25,7 km/h (4 Bft) 100,00 %
09.01.2019 11:40 5,0 C 7,8 C 3,9 C 89 % 1016,3 hPa 0,0 l/m 0 min 0 min 148 W/m 32,2 km/h (5 Bft) 100,00 %
09.01.2019 11:42 5,0 C 8,9 C 3,9 C 89 % 1016,4 hPa 0,0 l/m 2 min 0 min 152 W/m 19,3 km/h (3 Bft) 97,87 %
09.01.2019 11:44 5,1 C 10,6 C 3,9 C 88 % 1016,4 hPa 0,0 l/m 2 min 0 min 264 W/m 29,0 km/h (5 Bft) 100,00 %
09.01.2019 11:46 5,1 C 11,1 C 3,9 C 88 % 1016,4 hPa 0,0 l/m 2 min 0 min 266 W/m 25,7 km/h (4 Bft) 97,83 %
09.01.2019 11:48 5,1 C 11,1 C 3,9 C 88 % 1016,4 hPa 0,0 l/m 2 min 0 min 226 W/m 29,0 km/h (5 Bft) 100,00 %
09.01.2019 11:50 5,2 C 10,6 C 3,9 C 88 % 1016,4 hPa 0,0 l/m 2 min 0 min 222 W/m 25,7 km/h (4 Bft) 100,00 %
09.01.2019 11:52 5,2 C 11,1 C 3,9 C 87 % 1016,4 hPa 0,0 l/m 2 min 0 min 268 W/m 29,0 km/h (5 Bft) 100,00 %
09.01.2019 11:54 5,3 C 11,7 C 3,9 C 87 % 1016,3 hPa 0,0 l/m 2 min 0 min 271 W/m 16,1 km/h (3 Bft) 100,00 %
09.01.2019 11:56 5,4 C 11,7 C 3,9 C 87 % 1016,4 hPa 0,0 l/m 2 min 0 min 274 W/m 19,3 km/h (3 Bft) 97,87 %
09.01.2019 11:58 5,4 C 11,7 C 3,9 C 86 % 1016,3 hPa 0,0 l/m 2 min 0 min 273 W/m 22,5 km/h (4 Bft) 95,12 %
09.01.2019 12:00 5,5 C 11,7 C 3,9 C 86 % 1016,4 hPa 0,0 l/m 2 min 0 min 278 W/m 25,7 km/h (4 Bft) 97,87 %
09.01.2019 12:02 5,6 C 12,2 C 3,9 C 86 % 1016,4 hPa 0,0 l/m 2 min 0 min 275 W/m 22,5 km/h (4 Bft) 98,00 %
09.01.2019 12:04 5,6 C 12,2 C 3,9 C 86 % 1016,4 hPa 0,0 l/m 2 min 0 min 275 W/m 22,5 km/h (4 Bft) 95,92 %
09.01.2019 12:08 5,7 C 11,7 C 4,4 C 85 % 1016,4 hPa 0,0 l/m 4 min 0 min 279 W/m 22,5 km/h (4 Bft) 96,81 %
09.01.2019 12:10 5,8 C 11,7 C 4,4 C 84 % 1016,4 hPa 0,0 l/m 2 min 0 min 287 W/m 35,4 km/h (5 Bft) 97,83 %
09.01.2019 12:12 5,8 C 11,1 C 4,4 C 84 % 1016,4 hPa 0,0 l/m 2 min 0 min 295 W/m 32,2 km/h (5 Bft) 95,74 %
09.01.2019 12:14 5,8 C 10,0 C 4,4 C 84 % 1016,4 hPa 0,0 l/m 2 min 0 min 297 W/m 35,4 km/h (5 Bft) 97,62 %
09.01.2019 12:16 5,9 C 9,4 C 4,4 C 83 % 1016,4 hPa 0,0 l/m 0 min 0 min 151 W/m 9,7 km/h (2 Bft) 98,00 %
09.01.2019 12:18 5,9 C 8,9 C 4,4 C 83 % 1016,3 hPa 0,0 l/m 0 min 0 min 83 W/m 25,7 km/h (4 Bft) 97,83 %
09.01.2019 12:20 5,9 C 9,4 C 5,0 C 83 % 1016,4 hPa 0,0 l/m 0 min 0 min 128 W/m 22,5 km/h (4 Bft) 98,00 %
09.01.2019 12:22 5,9 C 9,4 C 5,0 C 83 % 1016,4 hPa 0,0 l/m 2 min 0 min 274 W/m 22,5 km/h (4 Bft) 95,65 %
09.01.2019 12:24 5,9 C 7,8 C 4,4 C 83 % 1016,4 hPa 0,0 l/m 0 min 0 min 66 W/m 32,2 km/h (5 Bft) 97,87 %
09.01.2019 12:26 5,9 C 9,4 C 5,0 C 82 % 1016,4 hPa 0,0 l/m 2 min 0 min 221 W/m 25,7 km/h (4 Bft) 97,62 %
09.01.2019 12:28 5,9 C 10,6 C 6,7 C 82 % 1016,3 hPa 0,0 l/m 2 min 0 min 272 W/m 19,3 km/h (3 Bft) 95,74 %
09.01.2019 12:30 5,9 C 11,7 C 7,8 C 82 % 1016,3 hPa 0,0 l/m 2 min 0 min 293 W/m 16,1 km/h (3 Bft) 95,92 %
09.01.2019 12:32 6,1 C 12,2 C 8,3 C 82 % 1016,3 hPa 0,0 l/m 2 min 0 min 291 W/m 35,4 km/h (5 Bft) 96,00 %
09.01.2019 12:34 6,1 C 11,7 C 8,9 C 82 % 1016,3 hPa 0,0 l/m 2 min 0 min 289 W/m 25,7 km/h (4 Bft) 97,83 %
09.01.2019 12:36 6,2 C 12,2 C 9,4 C 82 % 1016,2 hPa 0,0 l/m 2 min 0 min 306 W/m 19,3 km/h (3 Bft) 97,87 %
09.01.2019 12:38 6,2 C 11,7 C 8,9 C 81 % 1016,1 hPa 0,0 l/m 2 min 0 min 295 W/m 32,2 km/h (5 Bft) 93,62 %
09.01.2019 12:40 6,3 C 10,6 C 6,7 C 81 % 1016,2 hPa 0,0 l/m 0 min 0 min 107 W/m 22,5 km/h (4 Bft) 97,87 %
09.01.2019 12:42 6,3 C 11,7 C 6,1 C 80 % 1016,2 hPa 0,0 l/m 2 min 0 min 310 W/m 29,0 km/h (5 Bft) 97,87 %
09.01.2019 12:44 6,4 C 11,7 C 5,6 C 80 % 1016,1 hPa 0,0 l/m 2 min 0 min 323 W/m 38,6 km/h (5 Bft) 97,56 %
09.01.2019 12:46 6,4 C 9,4 C 5,0 C 79 % 1016,1 hPa 0,0 l/m 2 min 0 min 214 W/m 41,8 km/h (6 Bft) 98,00 %
09.01.2019 12:48 6,4 C 11,1 C 5,0 C 78 % 1016,1 hPa 0,0 l/m 2 min 0 min 217 W/m 19,3 km/h (3 Bft) 97,96 %
09.01.2019 12:50 6,4 C 11,1 C 5,0 C 78 % 1016,2 hPa 0,0 l/m 2 min 0 min 285 W/m 22,5 km/h (4 Bft) 97,87 %
09.01.2019 12:52 6,4 C 10,0 C 5,0 C 78 % 1016,2 hPa 0,0 l/m 2 min 0 min 285 W/m 22,5 km/h (4 Bft) 97,87 %
09.01.2019 12:54 6,4 C 8,3 C 5,0 C 78 % 1016,1 hPa 0,0 l/m 0 min 0 min 81 W/m 41,8 km/h (6 Bft) 95,74 %
09.01.2019 12:56 6,4 C 8,9 C 4,4 C 77 % 1016,2 hPa 0,0 l/m 0 min 0 min 93 W/m 29,0 km/h (5 Bft) 97,56 %
09.01.2019 12:58 6,4 C 10,0 C 5,0 C 77 % 1016,1 hPa 0,0 l/m 2 min 0 min 276 W/m 22,5 km/h (4 Bft) 96,00 %
09.01.2019 13:00 6,4 C 9,4 C 5,0 C 77 % 1016,2 hPa 0,0 l/m 2 min 0 min 188 W/m 22,5 km/h (4 Bft) 97,87 %
09.01.2019 13:02 6,4 C 10,6 C 5,0 C 77 % 1016,1 hPa 0,0 l/m 2 min 0 min 305 W/m 22,5 km/h (4 Bft) 97,96 %
09.01.2019 13:04 6,4 C 9,4 C 5,0 C 77 % 1016,2 hPa 0,0 l/m 2 min 0 min 289 W/m 38,6 km/h (5 Bft) 97,87 %
09.01.2019 13:06 6,4 C 7,8 C 5,0 C 77 % 1016,1 hPa 0,0 l/m 0 min 0 min 103 W/m 32,2 km/h (5 Bft) 100,00 %
09.01.2019 13:09 6,4 C 7,2 C 5,0 C 76 % 1016,1 hPa 0,0 l/m 0 min 0 min 142 W/m 25,7 km/h (4 Bft) 98,57 %
09.01.2019 13:10 6,4 C 7,2 C 5,0 C 76 % 1016,1 hPa 0,0 l/m 0 min 0 min 133 W/m 38,6 km/h (5 Bft) 95,65 %
09.01.2019 13:12 6,4 C 8,3 C 5,0 C 77 % 1016,2 hPa 0,0 l/m 0 min 0 min 140 W/m 19,3 km/h (3 Bft) 100,00 %
09.01.2019 13:14 6,3 C 7,8 C 5,0 C 77 % 1016,2 hPa 0,0 l/m 0 min 0 min 131 W/m 16,1 km/h (3 Bft) 100,00 %
09.01.2019 13:16 6,3 C 7,2 C 5,0 C 77 % 1016,2 hPa 0,0 l/m 0 min 0 min 109 W/m 32,2 km/h (5 Bft) 100,00 %
09.01.2019 13:18 6,2 C 6,7 C 5,0 C 77 % 1016,1 hPa 0,0 l/m 0 min 0 min 133 W/m 57,9 km/h (7 Bft) 97,87 %
09.01.2019 13:20 6,2 C 6,7 C 5,0 C 76 % 1016,2 hPa 0,0 l/m 0 min 0 min 118 W/m 29,0 km/h (5 Bft) 100,00 %
09.01.2019 13:22 6,2 C 7,2 C 5,0 C 76 % 1016,2 hPa 0,0 l/m 0 min 0 min 142 W/m 22,5 km/h (4 Bft) 100,00 %
09.01.2019 13:24 6,2 C 6,7 C 5,0 C 77 % 1016,1 hPa 0,0 l/m 0 min 0 min 116 W/m 22,5 km/h (4 Bft) 100,00 %
09.01.2019 13:26 6,1 C 6,7 C 5,0 C 77 % 1016,2 hPa 0,0 l/m 0 min 0 min 107 W/m 29,0 km/h (5 Bft) 100,00 %
09.01.2019 13:28 6,1 C 6,7 C 5,0 C 77 % 1016,2 hPa 0,0 l/m 0 min 0 min 110 W/m 29,0 km/h (5 Bft) 100,00 %
09.01.2019 13:30 6,1 C 6,1 C 5,0 C 77 % 1016,2 hPa 0,0 l/m 0 min 0 min 83 W/m 19,3 km/h (3 Bft) 100,00 %
09.01.2019 13:32 6,1 C 6,1 C 5,0 C 77 % 1016,2 hPa 0,0 l/m 0 min 0 min 86 W/m 19,3 km/h (3 Bft) 97,83 %
09.01.2019 13:34 6,0 C 6,1 C 5,0 C 77 % 1016,2 hPa 0,0 l/m 0 min 0 min 98 W/m 22,5 km/h (4 Bft) 100,00 %
09.01.2019 13:36 5,9 C 6,1 C 5,0 C 77 % 1016,1 hPa 0,0 l/m 0 min 0 min 118 W/m 35,4 km/h (5 Bft) 100,00 %
09.01.2019 13:38 5,9 C 6,1 C 5,0 C 77 % 1016,1 hPa 0,0 l/m 0 min 0 min 133 W/m 35,4 km/h (5 Bft) 97,87 %
09.01.2019 13:40 5,9 C 6,1 C 5,0 C 77 % 1016,1 hPa 0,0 l/m 0 min 0 min 118 W/m 48,3 km/h (6 Bft) 100,00 %
09.01.2019 13:42 5,9 C 6,1 C 5,0 C 77 % 1016,2 hPa 0,0 l/m 0 min 0 min 105 W/m 45,1 km/h (6 Bft) 100,00 %
09.01.2019 13:44 5,9 C 6,1 C 5,0 C 77 % 1016,2 hPa 0,0 l/m 0 min 0 min 122 W/m 25,7 km/h (4 Bft) 100,00 %
09.01.2019 13:46 5,9 C 6,1 C 5,0 C 77 % 1016,2 hPa 0,0 l/m 0 min 0 min 114 W/m 22,5 km/h (4 Bft) 100,00 %
09.01.2019 13:48 5,9 C 6,1 C 5,0 C 77 % 1016,2 hPa 0,0 l/m 0 min 0 min 89 W/m 16,1 km/h (3 Bft) 100,00 %
09.01.2019 13:50 5,9 C 6,1 C 5,0 C 77 % 1016,2 hPa 0,0 l/m 0 min 0 min 108 W/m 19,3 km/h (3 Bft) 100,00 %
09.01.2019 13:52 5,9 C 6,1 C 5,0 C 77 % 1016,2 hPa 0,0 l/m 0 min 0 min 87 W/m 41,8 km/h (6 Bft) 100,00 %
09.01.2019 13:54 5,9 C 6,1 C 5,0 C 76 % 1016,4 hPa 0,0 l/m 0 min 0 min 85 W/m 29,0 km/h (5 Bft) 97,87 %
09.01.2019 13:56 5,9 C 6,1 C 5,0 C 76 % 1016,3 hPa 0,0 l/m 0 min 0 min 122 W/m 32,2 km/h (5 Bft) 100,00 %
09.01.2019 13:58 5,9 C 6,1 C 5,0 C 76 % 1016,3 hPa 0,0 l/m 0 min 0 min 102 W/m 29,0 km/h (5 Bft) 97,87 %
09.01.2019 14:00 5,8 C 6,1 C 5,0 C 76 % 1016,2 hPa 0,0 l/m 0 min 0 min 82 W/m 41,8 km/h (6 Bft) 100,00 %
09.01.2019 14:02 5,8 C 5,6 C 4,4 C 76 % 1016,3 hPa 0,0 l/m 0 min 0 min 69 W/m 25,7 km/h (4 Bft) 96,30 %
09.01.2019 14:04 5,8 C 5,6 C 4,4 C 76 % 1016,3 hPa 0,0 l/m 0 min 0 min 68 W/m 19,3 km/h (3 Bft) 100,00 %
09.01.2019 14:06 5,8 C 5,6 C 4,4 C 76 % 1016,4 hPa 0,0 l/m 0 min 0 min 74 W/m 35,4 km/h (5 Bft) 93,62 %
09.01.2019 14:08 5,8 C 5,6 C 4,4 C 76 % 1016,4 hPa 0,0 l/m 0 min 0 min 67 W/m 22,5 km/h (4 Bft) 100,00 %
09.01.2019 14:10 5,8 C 6,1 C 4,4 C 76 % 1016,3 hPa 0,0 l/m 0 min 0 min 89 W/m 25,7 km/h (4 Bft) 97,87 %
09.01.2019 14:12 5,8 C 7,8 C 5,0 C 76 % 1016,4 hPa 0,0 l/m 2 min 0 min 212 W/m 38,6 km/h (5 Bft) 95,74 %
09.01.2019 14:14 5,8 C 6,7 C 5,0 C 75 % 1016,4 hPa 0,0 l/m 2 min 0 min 241 W/m 25,7 km/h (4 Bft) 97,83 %
09.01.2019 14:16 5,8 C 6,7 C 5,0 C 75 % 1016,3 hPa 0,0 l/m 0 min 0 min 104 W/m 29,0 km/h (5 Bft) 100,00 %
09.01.2019 14:18 5,8 C 7,8 C 5,0 C 75 % 1016,5 hPa 0,0 l/m 0 min 0 min 98 W/m 29,0 km/h (5 Bft) 100,00 %
09.01.2019 14:20 5,8 C 8,3 C 5,0 C 75 % 1016,5 hPa 0,0 l/m 0 min 0 min 96 W/m 22,5 km/h (4 Bft) 97,87 %
09.01.2019 14:22 5,8 C 10,0 C 5,0 C 75 % 1016,5 hPa 0,0 l/m 2 min 0 min 272 W/m 38,6 km/h (5 Bft) 93,62 %
09.01.2019 14:24 5,9 C 9,4 C 5,0 C 74 % 1016,5 hPa 0,0 l/m 2 min 0 min 247 W/m 41,8 km/h (6 Bft) 97,87 %
09.01.2019 14:26 5,9 C 10,0 C 5,0 C 74 % 1016,5 hPa 0,0 l/m 2 min 0 min 240 W/m 41,8 km/h (6 Bft) 97,83 %
09.01.2019 14:28 6,0 C 10,0 C 4,4 C 73 % 1016,4 hPa 0,0 l/m 2 min 0 min 204 W/m 38,6 km/h (5 Bft) 97,87 %
09.01.2019 14:30 6,0 C 10,6 C 4,4 C 73 % 1016,5 hPa 0,0 l/m 2 min 0 min 227 W/m 22,5 km/h (4 Bft) 95,74 %
09.01.2019 14:32 6,1 C 9,4 C 4,4 C 73 % 1016,5 hPa 0,0 l/m 2 min 0 min 222 W/m 29,0 km/h (5 Bft) 95,74 %
09.01.2019 14:34 6,1 C 10,0 C 4,4 C 73 % 1016,5 hPa 0,0 l/m 2 min 0 min 221 W/m 35,4 km/h (5 Bft) 95,74 %
09.01.2019 14:36 6,1 C 10,0 C 4,4 C 73 % 1016,5 hPa 0,0 l/m 2 min 0 min 208 W/m 32,2 km/h (5 Bft) 95,74 %
09.01.2019 14:38 6,1 C 10,6 C 4,4 C 73 % 1016,5 hPa 0,0 l/m 2 min 0 min 206 W/m 19,3 km/h (3 Bft) 95,74 %
09.01.2019 14:40 6,1 C 10,6 C 4,4 C 73 % 1016,6 hPa 0,0 l/m 2 min 0 min 231 W/m 32,2 km/h (5 Bft) 95,74 %
09.01.2019 14:42 6,1 C 10,6 C 4,4 C 73 % 1016,6 hPa 0,0 l/m 2 min 0 min 260 W/m 29,0 km/h (5 Bft) 95,74 %
09.01.2019 14:44 6,1 C 10,6 C 5,0 C 73 % 1016,6 hPa 0,0 l/m 2 min 0 min 269 W/m 29,0 km/h (5 Bft) 95,74 %
09.01.2019 14:46 6,1 C 10,6 C 5,0 C 73 % 1016,6 hPa 0,0 l/m 2 min 0 min 252 W/m 29,0 km/h (5 Bft) 95,74 %
09.01.2019 14:48 6,2 C 11,1 C 5,0 C 73 % 1016,5 hPa 0,0 l/m 2 min 0 min 231 W/m 22,5 km/h (4 Bft) 95,74 %
09.01.2019 14:50 6,2 C 9,4 C 5,0 C 73 % 1016,6 hPa 0,0 l/m 2 min 0 min 218 W/m 29,0 km/h (5 Bft) 93,48 %
09.01.2019 14:52 6,2 C 8,3 C 5,0 C 73 % 1016,6 hPa 0,0 l/m 2 min 0 min 212 W/m 25,7 km/h (4 Bft) 95,74 %
09.01.2019 14:54 6,1 C 7,2 C 5,0 C 73 % 1016,6 hPa 0,0 l/m 2 min 0 min 212 W/m 45,1 km/h (6 Bft) 93,62 %
09.01.2019 14:56 6,1 C 6,7 C 5,0 C 73 % 1016,6 hPa 0,0 l/m 2 min 0 min 220 W/m 45,1 km/h (6 Bft) 93,62 %
09.01.2019 14:58 6,1 C 6,7 C 5,0 C 73 % 1016,6 hPa 0,0 l/m 2 min 0 min 202 W/m 32,2 km/h (5 Bft) 95,74 %
09.01.2019 15:00 6,1 C 6,7 C 5,0 C 72 % 1016,7 hPa 0,0 l/m 2 min 0 min 142 W/m 38,6 km/h (5 Bft) 91,49 %
09.01.2019 15:02 6,1 C 6,1 C 5,0 C 72 % 1016,7 hPa 0,0 l/m 0 min 0 min 99 W/m 35,4 km/h (5 Bft) 91,30 %
09.01.2019 15:04 6,1 C 6,1 C 5,0 C 72 % 1016,6 hPa 0,0 l/m 0 min 0 min 78 W/m 41,8 km/h (6 Bft) 93,62 %
09.01.2019 15:06 6,1 C 6,1 C 4,4 C 72 % 1016,6 hPa 0,2 l/m 0 min 0 min 57 W/m 48,3 km/h (6 Bft) 91,49 %
09.01.2019 15:08 6,0 C 5,6 C 4,4 C 73 % 1016,6 hPa 0,0 l/m 0 min 0 min 56 W/m 29,0 km/h (5 Bft) 91,49 %
09.01.2019 15:10 6,0 C 6,1 C 4,4 C 73 % 1016,7 hPa 0,0 l/m 0 min 0 min 78 W/m 29,0 km/h (5 Bft) 95,74 %
09.01.2019 15:12 6,0 C 6,1 C 4,4 C 74 % 1016,7 hPa 0,0 l/m 0 min 0 min 75 W/m 19,3 km/h (3 Bft) 95,65 %
09.01.2019 15:14 6,0 C 5,6 C 4,4 C 74 % 1016,8 hPa 0,0 l/m 0 min 0 min 61 W/m 22,5 km/h (4 Bft) 95,74 %
09.01.2019 15:16 6,0 C 5,6 C 4,4 C 74 % 1016,8 hPa 0,0 l/m 0 min 0 min 37 W/m 25,7 km/h (4 Bft) 95,74 %
09.01.2019 15:18 5,9 C 5,6 C 4,4 C 74 % 1016,7 hPa 0,0 l/m 0 min 0 min 39 W/m 19,3 km/h (3 Bft) 97,87 %
09.01.2019 15:20 5,9 C 5,6 C 4,4 C 74 % 1016,8 hPa 0,0 l/m 0 min 0 min 41 W/m 29,0 km/h (5 Bft) 95,74 %
09.01.2019 15:22 5,9 C 5,6 C 4,4 C 74 % 1016,9 hPa 0,0 l/m 0 min 0 min 33 W/m 22,5 km/h (4 Bft) 97,87 %
09.01.2019 15:24 5,9 C 5,6 C 4,4 C 74 % 1016,9 hPa 0,0 l/m 0 min 0 min 39 W/m 41,8 km/h (6 Bft) 95,65 %
09.01.2019 15:26 5,8 C 5,0 C 4,4 C 73 % 1016,9 hPa 0,0 l/m 0 min 0 min 46 W/m 25,7 km/h (4 Bft) 97,87 %
09.01.2019 15:28 5,7 C 5,0 C 3,9 C 72 % 1016,9 hPa 0,0 l/m 0 min 0 min 40 W/m 32,2 km/h (5 Bft) 97,87 %
09.01.2019 15:30 5,7 C 5,0 C 3,9 C 72 % 1017,0 hPa 0,0 l/m 0 min 0 min 36 W/m 45,1 km/h (6 Bft) 97,87 %
09.01.2019 15:32 5,6 C 5,0 C 3,9 C 71 % 1016,9 hPa 0,0 l/m 0 min 0 min 46 W/m 25,7 km/h (4 Bft) 97,87 %
09.01.2019 15:34 5,6 C 5,0 C 3,9 C 71 % 1016,9 hPa 0,0 l/m 0 min 0 min 50 W/m 25,7 km/h (4 Bft) 95,74 %
09.01.2019 15:36 5,5 C 5,0 C 3,9 C 71 % 1017,0 hPa 0,0 l/m 0 min 0 min 41 W/m 25,7 km/h (4 Bft) 97,83 %
09.01.2019 15:38 5,4 C 5,0 C 3,9 C 71 % 1017,1 hPa 0,0 l/m 0 min 0 min 38 W/m 22,5 km/h (4 Bft) 97,87 %
09.01.2019 15:40 5,4 C 5,0 C 3,9 C 71 % 1017,1 hPa 0,0 l/m 0 min 0 min 37 W/m 16,1 km/h (3 Bft) 97,87 %
09.01.2019 15:42 5,4 C 5,0 C 3,9 C 71 % 1017,1 hPa 0,0 l/m 0 min 0 min 30 W/m 22,5 km/h (4 Bft) 97,87 %
09.01.2019 15:44 5,3 C 5,0 C 3,9 C 72 % 1017,2 hPa 0,0 l/m 0 min 0 min 31 W/m 25,7 km/h (4 Bft) 97,87 %
09.01.2019 15:46 5,3 C 4,4 C 3,9 C 71 % 1017,1 hPa 0,0 l/m 0 min 0 min 35 W/m 29,0 km/h (5 Bft) 100,00 %
09.01.2019 15:48 5,3 C 5,0 C 3,9 C 71 % 1017,1 hPa 0,0 l/m 0 min 0 min 41 W/m 19,3 km/h (3 Bft) 100,00 %
09.01.2019 15:50 5,2 C 5,0 C 3,9 C 72 % 1017,1 hPa 0,0 l/m 0 min 0 min 46 W/m 29,0 km/h (5 Bft) 100,00 %
09.01.2019 15:52 5,2 C 5,0 C 3,9 C 72 % 1017,1 hPa 0,0 l/m 0 min 0 min 51 W/m 25,7 km/h (4 Bft) 97,87 %
09.01.2019 15:54 5,2 C 5,0 C 3,9 C 72 % 1017,1 hPa 0,0 l/m 0 min 0 min 45 W/m 29,0 km/h (5 Bft) 100,00 %
09.01.2019 15:56 5,2 C 5,0 C 3,9 C 73 % 1017,2 hPa 0,0 l/m 0 min 0 min 42 W/m 29,0 km/h (5 Bft) 97,87 %
09.01.2019 15:58 5,2 C 5,0 C 3,9 C 73 % 1017,1 hPa 0,0 l/m 0 min 0 min 36 W/m 9,7 km/h (2 Bft) 100,00 %
09.01.2019 16:00 5,2 C 5,0 C 3,9 C 73 % 1017,2 hPa 0,0 l/m 0 min 0 min 32 W/m 16,1 km/h (3 Bft) 97,83 %
09.01.2019 16:02 5,2 C 4,4 C 3,9 C 74 % 1017,3 hPa 0,0 l/m 0 min 0 min 28 W/m 22,5 km/h (4 Bft) 93,62 %
09.01.2019 16:04 5,1 C 4,4 C 3,9 C 74 % 1017,3 hPa 0,0 l/m 0 min 0 min 29 W/m 16,1 km/h (3 Bft) 100,00 %
09.01.2019 16:06 5,1 C 4,4 C 3,3 C 74 % 1017,3 hPa 0,0 l/m 0 min 0 min 32 W/m 32,2 km/h (5 Bft) 100,00 %
09.01.2019 16:08 5,1 C 4,4 C 3,3 C 74 % 1017,3 hPa 0,0 l/m 0 min 0 min 32 W/m 22,5 km/h (4 Bft) 100,00 %
09.01.2019 16:10 5,1 C 4,4 C 3,9 C 74 % 1017,4 hPa 0,0 l/m 0 min 0 min 29 W/m 29,0 km/h (5 Bft) 100,00 %
09.01.2019 16:12 5,1 C 4,4 C 3,3 C 74 % 1017,4 hPa 0,0 l/m 2 min 0 min 36 W/m 16,1 km/h (3 Bft) 100,00 %
09.01.2019 16:14 5,1 C 4,4 C 3,3 C 74 % 1017,5 hPa 0,0 l/m 2 min 0 min 40 W/m 19,3 km/h (3 Bft) 100,00 %
09.01.2019 16:16 5,1 C 4,4 C 3,3 C 74 % 1017,5 hPa 0,0 l/m 2 min 0 min 34 W/m 22,5 km/h (4 Bft) 97,87 %
09.01.2019 16:18 5,0 C 4,4 C 3,3 C 74 % 1017,5 hPa 0,0 l/m 2 min 0 min 27 W/m 25,7 km/h (4 Bft) 100,00 %
09.01.2019 16:20 5,0 C 4,4 C 3,3 C 74 % 1017,4 hPa 0,0 l/m 0 min 0 min 21 W/m 35,4 km/h (5 Bft) 100,00 %
09.01.2019 16:22 4,9 C 4,4 C 3,3 C 73 % 1017,5 hPa 0,0 l/m 0 min 0 min 16 W/m 25,7 km/h (4 Bft) 100,00 %
09.01.2019 16:24 4,9 C 4,4 C 3,3 C 73 % 1017,5 hPa 0,0 l/m 0 min 0 min 14 W/m 19,3 km/h (3 Bft) 100,00 %
09.01.2019 16:26 4,9 C 3,9 C 3,3 C 73 % 1017,5 hPa 0,0 l/m 0 min 0 min 11 W/m 38,6 km/h (5 Bft) 100,00 %
09.01.2019 16:28 4,8 C 3,9 C 3,3 C 73 % 1017,5 hPa 0,0 l/m 0 min 0 min 9 W/m 19,3 km/h (3 Bft) 97,87 %
09.01.2019 16:30 4,8 C 3,9 C 2,8 C 73 % 1017,5 hPa 0,0 l/m 0 min 0 min 7 W/m 12,9 km/h (3 Bft) 100,00 %
09.01.2019 16:32 4,8 C 3,9 C 2,8 C 74 % 1017,5 hPa 0,0 l/m 0 min 0 min 7 W/m 22,5 km/h (4 Bft) 100,00 %
09.01.2019 16:34 4,7 C 3,9 C 2,8 C 74 % 1017,5 hPa 0,0 l/m 0 min 0 min 6 W/m 12,9 km/h (3 Bft) 100,00 %
09.01.2019 16:36 4,7 C 3,9 C 2,8 C 74 % 1017,6 hPa 0,0 l/m 0 min 0 min 5 W/m 32,2 km/h (5 Bft) 97,87 %
09.01.2019 16:38 4,7 C 3,9 C 2,8 C 74 % 1017,6 hPa 0,0 l/m 0 min 0 min 5 W/m 16,1 km/h (3 Bft) 97,92 %
09.01.2019 16:40 4,6 C 3,3 C 2,8 C 75 % 1017,6 hPa 0,0 l/m 0 min 0 min 5 W/m 19,3 km/h (3 Bft) 97,87 %
09.01.2019 16:42 4,6 C 3,9 C 2,8 C 75 % 1017,6 hPa 0,0 l/m 0 min 0 min 5 W/m 22,5 km/h (4 Bft) 100,00 %
09.01.2019 16:44 4,6 C 3,3 C 2,8 C 75 % 1017,6 hPa 0,0 l/m 0 min 0 min 1 W/m 22,5 km/h (4 Bft) 97,87 %
09.01.2019 16:46 4,5 C 3,3 C 2,8 C 75 % 1017,6 hPa 0,0 l/m 0 min 0 min 0 W/m 19,3 km/h (3 Bft) 97,83 %
09.01.2019 16:48 4,4 C 3,9 C 2,8 C 75 % 1017,7 hPa 0,0 l/m 0 min 0 min 0 W/m 41,8 km/h (6 Bft) 97,87 %
09.01.2019 16:50 4,4 C 3,9 C 2,8 C 75 % 1017,7 hPa 0,0 l/m 0 min 0 min 0 W/m 25,7 km/h (4 Bft) 100,00 %
09.01.2019 16:52 4,4 C 3,3 C 2,8 C 75 % 1017,7 hPa 0,0 l/m 0 min 0 min 0 W/m 32,2 km/h (5 Bft) 97,87 %
09.01.2019 16:54 4,3 C 3,3 C 2,8 C 75 % 1017,8 hPa 0,0 l/m 0 min 0 min 0 W/m 29,0 km/h (5 Bft) 97,87 %
09.01.2019 16:56 4,3 C 3,3 C 2,8 C 76 % 1017,7 hPa 0,0 l/m 0 min 0 min 0 W/m 16,1 km/h (3 Bft) 97,87 %
09.01.2019 16:58 4,3 C 3,3 C 2,2 C 76 % 1017,8 hPa 0,0 l/m 0 min 0 min 0 W/m 22,5 km/h (4 Bft) 89,13 %
09.01.2019 17:00 4,2 C 3,3 C 2,2 C 76 % 1017,8 hPa 0,0 l/m 0 min 0 min 0 W/m 35,4 km/h (5 Bft) 97,87 %
09.01.2019 17:02 4,2 C 3,3 C 2,2 C 76 % 1017,8 hPa 0,0 l/m 0 min 0 min 0 W/m 12,9 km/h (3 Bft) 97,87 %
09.01.2019 17:04 4,2 C 3,3 C 2,2 C 76 % 1017,9 hPa 0,0 l/m 0 min 0 min 0 W/m 22,5 km/h (4 Bft) 93,62 %
09.01.2019 17:06 4,1 C 3,3 C 2,2 C 76 % 1017,9 hPa 0,0 l/m 0 min 0 min 0 W/m 38,6 km/h (5 Bft) 93,62 %
09.01.2019 17:08 4,1 C 3,3 C 2,2 C 76 % 1017,8 hPa 0,0 l/m 0 min 0 min 0 W/m 19,3 km/h (3 Bft) 97,87 %
09.01.2019 17:10 4,1 C 3,3 C 2,2 C 76 % 1017,9 hPa 0,0 l/m 0 min 0 min 0 W/m 25,7 km/h (4 Bft) 97,83 %
09.01.2019 17:12 4,0 C 3,3 C 2,2 C 76 % 1017,9 hPa 0,0 l/m 0 min 0 min 0 W/m 25,7 km/h (4 Bft) 97,87 %
09.01.2019 17:14 4,0 C 3,3 C 2,2 C 76 % 1017,9 hPa 0,0 l/m 0 min 0 min 0 W/m 22,5 km/h (4 Bft) 95,74 %
09.01.2019 17:16 4,0 C 3,3 C 2,2 C 76 % 1017,9 hPa 0,0 l/m 0 min 0 min 0 W/m 19,3 km/h (3 Bft) 97,87 %
09.01.2019 17:18 4,0 C 3,3 C 2,2 C 76 % 1017,9 hPa 0,0 l/m 0 min 0 min 0 W/m 22,5 km/h (4 Bft) 95,74 %
09.01.2019 17:20 3,9 C 3,3 C 2,2 C 76 % 1018,0 hPa 0,0 l/m 0 min 0 min 0 W/m 25,7 km/h (4 Bft) 95,74 %
09.01.2019 17:22 3,9 C 3,3 C 2,2 C 76 % 1018,0 hPa 0,0 l/m 0 min 0 min 0 W/m 35,4 km/h (5 Bft) 97,87 %
09.01.2019 17:24 3,9 C 3,3 C 2,2 C 76 % 1018,1 hPa 0,0 l/m 0 min 0 min 0 W/m 25,7 km/h (4 Bft) 97,83 %
09.01.2019 17:26 3,9 C 3,3 C 2,2 C 77 % 1018,1 hPa 0,0 l/m 0 min 0 min 0 W/m 19,3 km/h (3 Bft) 82,98 %
09.01.2019 17:28 3,9 C 3,3 C 2,2 C 77 % 1018,2 hPa 0,0 l/m 0 min 0 min 0 W/m 25,7 km/h (4 Bft) 97,87 %
09.01.2019 17:30 3,9 C 3,3 C 2,2 C 77 % 1018,2 hPa 0,0 l/m 0 min 0 min 0 W/m 32,2 km/h (5 Bft) 97,87 %
09.01.2019 17:32 3,8 C 3,3 C 2,2 C 77 % 1018,2 hPa 0,0 l/m 0 min 0 min 0 W/m 16,1 km/h (3 Bft) 100,00 %
09.01.2019 17:34 3,8 C 2,8 C 2,2 C 77 % 1018,2 hPa 0,0 l/m 0 min 0 min 0 W/m 16,1 km/h (3 Bft) 100,00 %
09.01.2019 17:36 3,8 C 2,8 C 2,2 C 77 % 1018,3 hPa 0,0 l/m 0 min 0 min 0 W/m 25,7 km/h (4 Bft) 97,87 %
09.01.2019 17:38 3,8 C 2,8 C 2,2 C 77 % 1018,3 hPa 0,0 l/m 0 min 0 min 0 W/m 22,5 km/h (4 Bft) 93,62 %
09.01.2019 17:40 3,7 C 2,8 C 2,2 C 77 % 1018,2 hPa 0,0 l/m 0 min 0 min 0 W/m 25,7 km/h (4 Bft) 89,36 %
09.01.2019 17:42 3,7 C 3,3 C 2,2 C 77 % 1018,2 hPa 0,0 l/m 0 min 0 min 0 W/m 35,4 km/h (5 Bft) 97,87 %
09.01.2019 17:44 3,7 C 3,3 C 2,2 C 77 % 1018,2 hPa 0,0 l/m 0 min 0 min 0 W/m 48,3 km/h (6 Bft) 95,65 %
09.01.2019 17:46 3,7 C 3,3 C 2,2 C 77 % 1018,2 hPa 0,0 l/m 0 min 0 min 0 W/m 16,1 km/h (3 Bft) 93,62 %
09.01.2019 17:48 3,7 C 3,3 C 2,2 C 77 % 1018,3 hPa 0,0 l/m 0 min 0 min 0 W/m 22,5 km/h (4 Bft) 89,36 %
09.01.2019 17:50 3,7 C 3,3 C 2,2 C 77 % 1018,3 hPa 0,0 l/m 0 min 0 min 0 W/m 25,7 km/h (4 Bft) 95,74 %
09.01.2019 17:52 3,7 C 3,3 C 2,2 C 78 % 1018,3 hPa 0,0 l/m 0 min 0 min 0 W/m 29,0 km/h (5 Bft) 91,49 %
09.01.2019 17:54 3,7 C 3,3 C 2,2 C 78 % 1018,3 hPa 0,0 l/m 0 min 0 min 0 W/m 9,7 km/h (2 Bft) 91,49 %
09.01.2019 17:56 3,7 C 3,3 C 2,2 C 78 % 1018,3 hPa 0,0 l/m 0 min 0 min 0 W/m 22,5 km/h (4 Bft) 95,65 %
09.01.2019 17:58 3,7 C 2,8 C 2,2 C 78 % 1018,3 hPa 0,0 l/m 0 min 0 min 0 W/m 16,1 km/h (3 Bft) 93,62 %
09.01.2019 18:00 3,7 C 2,8 C 2,2 C 78 % 1018,3 hPa 0,0 l/m 0 min 0 min 0 W/m 19,3 km/h (3 Bft) 95,74 %
09.01.2019 18:02 3,7 C 2,8 C 2,2 C 78 % 1018,2 hPa 0,0 l/m 0 min 0 min 0 W/m 19,3 km/h (3 Bft) 95,74 %
09.01.2019 18:04 3,7 C 3,3 C 2,2 C 78 % 1018,3 hPa 0,0 l/m 0 min 0 min 0 W/m 41,8 km/h (6 Bft) 93,62 %
09.01.2019 18:08 3,7 C 2,8 C 2,2 C 78 % 1018,3 hPa 0,0 l/m 0 min 0 min 0 W/m 38,6 km/h (5 Bft) 95,70 %
09.01.2019 18:10 3,7 C 2,8 C 2,2 C 78 % 1018,4 hPa 0,0 l/m 0 min 0 min 0 W/m 19,3 km/h (3 Bft) 93,62 %
09.01.2019 18:12 3,6 C 2,8 C 2,2 C 78 % 1018,3 hPa 0,0 l/m 0 min 0 min 0 W/m 29,0 km/h (5 Bft) 95,74 %
09.01.2019 18:14 3,6 C 2,8 C 2,2 C 78 % 1018,3 hPa 0,0 l/m 0 min 0 min 0 W/m 25,7 km/h (4 Bft) 93,62 %
09.01.2019 18:16 3,6 C 2,8 C 2,2 C 78 % 1018,3 hPa 0,0 l/m 0 min 0 min 0 W/m 25,7 km/h (4 Bft) 95,74 %
09.01.2019 18:18 3,6 C 2,8 C 2,2 C 79 % 1018,3 hPa 0,0 l/m 0 min 0 min 0 W/m 19,3 km/h (3 Bft) 91,49 %
09.01.2019 18:20 3,6 C 2,8 C 2,2 C 79 % 1018,3 hPa 0,0 l/m 0 min 0 min 0 W/m 22,5 km/h (4 Bft) 95,65 %
09.01.2019 18:22 3,6 C 2,8 C 2,2 C 79 % 1018,3 hPa 0,0 l/m 0 min 0 min 0 W/m 22,5 km/h (4 Bft) 91,49 %
09.01.2019 18:24 3,6 C 2,8 C 1,7 C 79 % 1018,3 hPa 0,0 l/m 0 min 0 min 0 W/m 9,7 km/h (2 Bft) 95,74 %
09.01.2019 18:26 3,5 C 2,8 C 1,7 C 79 % 1018,5 hPa 0,0 l/m 0 min 0 min 0 W/m 25,7 km/h (4 Bft) 91,49 %
09.01.2019 18:28 3,5 C 2,8 C 1,7 C 79 % 1018,5 hPa 0,0 l/m 0 min 0 min 0 W/m 19,3 km/h (3 Bft) 95,74 %
09.01.2019 18:30 3,5 C 2,8 C 1,7 C 79 % 1018,5 hPa 0,0 l/m 0 min 0 min 0 W/m 19,3 km/h (3 Bft) 93,48 %
09.01.2019 18:32 3,4 C 2,8 C 1,7 C 79 % 1018,5 hPa 0,0 l/m 0 min 0 min 0 W/m 16,1 km/h (3 Bft) 95,74 %
09.01.2019 18:34 3,4 C 2,8 C 1,7 C 80 % 1018,6 hPa 0,0 l/m 0 min 0 min 0 W/m 16,1 km/h (3 Bft) 93,62 %
09.01.2019 18:36 3,4 C 2,8 C 1,7 C 80 % 1018,6 hPa 0,0 l/m 0 min 0 min 0 W/m 3,2 km/h (1 Bft) 97,87 %
09.01.2019 18:38 3,4 C 2,2 C 1,7 C 80 % 1018,7 hPa 0,0 l/m 0 min 0 min 0 W/m 9,7 km/h (2 Bft) 93,62 %
09.01.2019 18:40 3,3 C 2,8 C 1,7 C 80 % 1018,7 hPa 0,0 l/m 0 min 0 min 0 W/m 22,5 km/h (4 Bft) 97,87 %
09.01.2019 18:42 3,3 C 2,8 C 1,7 C 80 % 1018,7 hPa 0,0 l/m 0 min 0 min 0 W/m 22,5 km/h (4 Bft) 97,83 %
09.01.2019 18:44 3,3 C 2,8 C 1,7 C 80 % 1018,8 hPa 0,0 l/m 0 min 0 min 0 W/m 19,3 km/h (3 Bft) 95,74 %
09.01.2019 18:46 3,3 C 2,8 C 1,7 C 80 % 1018,8 hPa 0,0 l/m 0 min 0 min 0 W/m 9,7 km/h (2 Bft) 87,23 %
09.01.2019 18:48 3,3 C 2,8 C 1,7 C 80 % 1018,7 hPa 0,0 l/m 0 min 0 min 0 W/m 25,7 km/h (4 Bft) 97,96 %
09.01.2019 18:50 3,3 C 2,8 C 1,7 C 80 % 1018,7 hPa 0,0 l/m 0 min 0 min 0 W/m 29,0 km/h (5 Bft) 95,74 %
09.01.2019 18:52 3,2 C 2,8 C 1,7 C 80 % 1018,8 hPa 0,0 l/m 0 min 0 min 0 W/m 22,5 km/h (4 Bft) 100,00 %
09.01.2019 18:54 3,2 C 2,8 C 1,7 C 81 % 1018,8 hPa 0,0 l/m 0 min 0 min 0 W/m 19,3 km/h (3 Bft) 93,62 %
09.01.2019 18:56 3,2 C 2,8 C 1,7 C 81 % 1018,8 hPa 0,0 l/m 0 min 0 min 0 W/m 12,9 km/h (3 Bft) 91,49 %
09.01.2019 18:58 3,2 C 2,8 C 1,7 C 81 % 1018,9 hPa 0,0 l/m 0 min 0 min 0 W/m 12,9 km/h (3 Bft) 89,13 %
09.01.2019 19:00 3,2 C 2,8 C 1,7 C 81 % 1018,9 hPa 0,0 l/m 0 min 0 min 0 W/m 12,9 km/h (3 Bft) 97,87 %
09.01.2019 19:02 3,2 C 2,8 C 1,7 C 81 % 1019,0 hPa 0,0 l/m 0 min 0 min 0 W/m 54,7 km/h (7 Bft) 97,87 %
09.01.2019 19:04 3,2 C 2,8 C 1,7 C 81 % 1018,9 hPa 0,0 l/m 0 min 0 min 0 W/m 25,7 km/h (4 Bft) 97,87 %
09.01.2019 19:06 3,2 C 2,8 C 1,7 C 81 % 1019,0 hPa 0,0 l/m 0 min 0 min 0 W/m 0,0 km/h (0 Bft) 74,47 %
09.01.2019 19:08 3,2 C 2,8 C 1,7 C 81 % 1019,1 hPa 0,0 l/m 0 min 0 min 0 W/m 12,9 km/h (3 Bft) 76,60 %
09.01.2019 19:10 3,2 C 2,8 C 1,7 C 81 % 1019,0 hPa 0,0 l/m 0 min 0 min 0 W/m 16,1 km/h (3 Bft) 76,09 %
09.01.2019 19:12 3,2 C 2,2 C 1,7 C 81 % 1019,1 hPa 0,0 l/m 0 min 0 min 0 W/m 9,7 km/h (2 Bft) 76,60 %
09.01.2019 19:14 3,2 C 2,2 C 1,7 C 81 % 1019,1 hPa 0,0 l/m 0 min 0 min 0 W/m 9,7 km/h (2 Bft) 74,47 %
09.01.2019 19:16 3,2 C 2,2 C 1,7 C 81 % 1019,2 hPa 0,0 l/m 0 min 0 min 0 W/m 19,3 km/h (3 Bft) 85,11 %
09.01.2019 19:18 3,1 C 2,8 C 1,7 C 81 % 1019,2 hPa 0,0 l/m 0 min 0 min 0 W/m 22,5 km/h (4 Bft) 93,62 %
09.01.2019 19:20 3,1 C 2,8 C 1,7 C 81 % 1019,2 hPa 0,0 l/m 0 min 0 min 0 W/m 19,3 km/h (3 Bft) 85,11 %
09.01.2019 19:22 3,1 C 2,8 C 1,7 C 81 % 1019,2 hPa 0,0 l/m 0 min 0 min 0 W/m 22,5 km/h (4 Bft) 91,30 %
09.01.2019 19:24 3,1 C 2,8 C 1,7 C 81 % 1019,3 hPa 0,0 l/m 0 min 0 min 0 W/m 19,3 km/h (3 Bft) 87,23 %
09.01.2019 19:26 3,1 C 2,8 C 2,2 C 81 % 1019,3 hPa 0,0 l/m 0 min 0 min 0 W/m 29,0 km/h (5 Bft) 85,11 %
09.01.2019 19:28 3,1 C 2,8 C 2,2 C 81 % 1019,2 hPa 0,0 l/m 0 min 0 min 0 W/m 9,7 km/h (2 Bft) 74,47 %
09.01.2019 19:30 3,1 C 2,8 C 2,2 C 81 % 1019,3 hPa 0,0 l/m 0 min 0 min 0 W/m 19,3 km/h (3 Bft) 87,23 %
09.01.2019 19:32 3,2 C 2,8 C 2,2 C 81 % 1019,4 hPa 0,0 l/m 0 min 0 min 0 W/m 25,7 km/h (4 Bft) 93,62 %
09.01.2019 19:34 3,2 C 2,8 C 2,2 C 81 % 1019,3 hPa 0,0 l/m 0 min 0 min 0 W/m 32,2 km/h (5 Bft) 97,83 %
09.01.2019 19:36 3,2 C 2,8 C 2,2 C 81 % 1019,4 hPa 0,0 l/m 0 min 0 min 0 W/m 25,7 km/h (4 Bft) 82,98 %
09.01.2019 19:38 3,2 C 2,8 C 2,2 C 81 % 1019,4 hPa 0,0 l/m 0 min 0 min 0 W/m 22,5 km/h (4 Bft) 93,62 %
09.01.2019 19:40 3,2 C 2,8 C 1,7 C 81 % 1019,5 hPa 0,0 l/m 0 min 0 min 0 W/m 12,9 km/h (3 Bft) 82,98 %
09.01.2019 19:42 3,2 C 2,8 C 1,7 C 81 % 1019,5 hPa 0,0 l/m 0 min 0 min 0 W/m 16,1 km/h (3 Bft) 78,72 %
09.01.2019 19:44 3,2 C 2,8 C 2,2 C 81 % 1019,6 hPa 0,0 l/m 0 min 0 min 0 W/m 16,1 km/h (3 Bft) 78,72 %
09.01.2019 19:46 3,2 C 2,8 C 2,2 C 81 % 1019,5 hPa 0,0 l/m 0 min 0 min 0 W/m 9,7 km/h (2 Bft) 76,09 %
09.01.2019 19:48 3,2 C 2,8 C 1,7 C 81 % 1019,6 hPa 0,0 l/m 0 min 0 min 0 W/m 22,5 km/h (4 Bft) 78,72 %
09.01.2019 19:50 3,2 C 2,8 C 1,7 C 81 % 1019,6 hPa 0,0 l/m 0 min 0 min 0 W/m 22,5 km/h (4 Bft) 85,11 %
09.01.2019 19:52 3,2 C 2,8 C 1,7 C 81 % 1019,6 hPa 0,0 l/m 0 min 0 min 0 W/m 12,9 km/h (3 Bft) 89,36 %
09.01.2019 19:54 3,2 C 2,8 C 1,7 C 81 % 1019,6 hPa 0,0 l/m 0 min 0 min 0 W/m 16,1 km/h (3 Bft) 80,85 %
09.01.2019 19:56 3,2 C 2,8 C 1,7 C 81 % 1019,6 hPa 0,0 l/m 0 min 0 min 0 W/m 19,3 km/h (3 Bft) 76,60 %
09.01.2019 19:58 3,2 C 2,8 C 1,7 C 81 % 1019,6 hPa 0,0 l/m 0 min 0 min 0 W/m 22,5 km/h (4 Bft) 71,74 %
09.01.2019 20:00 3,2 C 2,8 C 1,7 C 81 % 1019,6 hPa 0,0 l/m 0 min 0 min 0 W/m 12,9 km/h (3 Bft) 78,72 %
09.01.2019 20:02 3,2 C 2,8 C 1,7 C 81 % 1019,7 hPa 0,0 l/m 0 min 0 min 0 W/m 12,9 km/h (3 Bft) 74,47 %
09.01.2019 20:04 3,2 C 2,8 C 1,7 C 82 % 1019,6 hPa 0,0 l/m 0 min 0 min 0 W/m 25,7 km/h (4 Bft) 97,87 %
09.01.2019 20:06 3,2 C 2,8 C 1,7 C 82 % 1019,7 hPa 0,0 l/m 0 min 0 min 0 W/m 35,4 km/h (5 Bft) 95,74 %
09.01.2019 20:08 3,2 C 2,8 C 1,7 C 82 % 1019,7 hPa 0,0 l/m 0 min 0 min 0 W/m 32,2 km/h (5 Bft) 100,00 %
09.01.2019 20:10 3,2 C 2,8 C 1,7 C 82 % 1019,7 hPa 0,0 l/m 0 min 0 min 0 W/m 22,5 km/h (4 Bft) 93,48 %
09.01.2019 20:12 3,1 C 2,8 C 1,7 C 82 % 1019,8 hPa 0,0 l/m 0 min 0 min 0 W/m 12,9 km/h (3 Bft) 89,36 %
09.01.2019 20:14 3,1 C 2,8 C 1,7 C 82 % 1019,8 hPa 0,0 l/m 0 min 0 min 0 W/m 41,8 km/h (6 Bft) 87,23 %
09.01.2019 20:16 3,1 C 2,8 C 1,7 C 82 % 1019,9 hPa 0,0 l/m 0 min 0 min 0 W/m 19,3 km/h (3 Bft) 91,49 %
09.01.2019 20:18 3,1 C 2,8 C 1,7 C 82 % 1019,9 hPa 0,0 l/m 0 min 0 min 0 W/m 22,5 km/h (4 Bft) 82,98 %
09.01.2019 20:20 3,1 C 2,8 C 1,7 C 82 % 1019,9 hPa 0,0 l/m 0 min 0 min 0 W/m 16,1 km/h (3 Bft) 78,26 %
09.01.2019 20:22 3,1 C 2,2 C 1,7 C 82 % 1019,8 hPa 0,0 l/m 0 min 0 min 0 W/m 32,2 km/h (5 Bft) 85,11 %
09.01.2019 20:24 3,1 C 2,2 C 1,7 C 82 % 1019,8 hPa 0,0 l/m 0 min 0 min 0 W/m 25,7 km/h (4 Bft) 91,49 %
09.01.2019 20:26 3,1 C 2,2 C 1,7 C 82 % 1019,8 hPa 0,0 l/m 0 min 0 min 0 W/m 16,1 km/h (3 Bft) 95,74 %
09.01.2019 20:28 3,1 C 2,2 C 1,7 C 82 % 1019,9 hPa 0,0 l/m 0 min 0 min 0 W/m 19,3 km/h (3 Bft) 91,49 %
09.01.2019 20:30 3,0 C 2,2 C 1,7 C 82 % 1019,9 hPa 0,0 l/m 0 min 0 min 0 W/m 16,1 km/h (3 Bft) 82,98 %
09.01.2019 20:32 3,0 C 2,2 C 1,7 C 82 % 1019,9 hPa 0,0 l/m 0 min 0 min 0 W/m 25,7 km/h (4 Bft) 80,43 %
09.01.2019 20:34 3,0 C 2,2 C 1,7 C 82 % 1019,9 hPa 0,0 l/m 0 min 0 min 0 W/m 19,3 km/h (3 Bft) 78,72 %
09.01.2019 20:36 2,9 C 2,2 C 1,7 C 82 % 1020,0 hPa 0,0 l/m 0 min 0 min 0 W/m 25,7 km/h (4 Bft) 82,98 %
09.01.2019 20:38 2,9 C 2,2 C 1,7 C 82 % 1019,9 hPa 0,0 l/m 0 min 0 min 0 W/m 19,3 km/h (3 Bft) 91,49 %
09.01.2019 20:40 2,9 C 2,2 C 1,7 C 82 % 1019,9 hPa 0,0 l/m 0 min 0 min 0 W/m 12,9 km/h (3 Bft) 82,98 %
09.01.2019 20:42 2,9 C 2,2 C 1,7 C 82 % 1019,9 hPa 0,0 l/m 0 min 0 min 0 W/m 16,1 km/h (3 Bft) 76,60 %
09.01.2019 20:44 2,9 C 2,2 C 1,7 C 82 % 1020,0 hPa 0,0 l/m 0 min 0 min 0 W/m 16,1 km/h (3 Bft) 73,91 %
09.01.2019 20:46 2,9 C 2,2 C 1,7 C 82 % 1020,0 hPa 0,0 l/m 0 min 0 min 0 W/m 16,1 km/h (3 Bft) 78,72 %
09.01.2019 20:48 2,8 C 2,2 C 1,7 C 82 % 1020,0 hPa 0,0 l/m 0 min 0 min 0 W/m 9,7 km/h (2 Bft) 82,98 %
09.01.2019 20:50 2,8 C 2,2 C 1,7 C 82 % 1019,9 hPa 0,0 l/m 0 min 0 min 0 W/m 12,9 km/h (3 Bft) 80,85 %
09.01.2019 20:52 2,8 C 2,2 C 1,1 C 83 % 1020,0 hPa 0,0 l/m 0 min 0 min 0 W/m 9,7 km/h (2 Bft) 80,85 %
09.01.2019 20:54 2,8 C 2,2 C 1,1 C 83 % 1020,0 hPa 0,0 l/m 0 min 0 min 0 W/m 12,9 km/h (3 Bft) 74,47 %
09.01.2019 20:56 2,8 C 2,2 C 1,7 C 83 % 1020,1 hPa 0,0 l/m 0 min 0 min 0 W/m 9,7 km/h (2 Bft) 86,96 %
09.01.2019 20:58 2,8 C 2,2 C 1,7 C 83 % 1020,1 hPa 0,0 l/m 0 min 0 min 0 W/m 22,5 km/h (4 Bft) 82,98 %
09.01.2019 21:00 2,7 C 2,2 C 1,1 C 83 % 1020,1 hPa 0,0 l/m 0 min 0 min 0 W/m 12,9 km/h (3 Bft) 80,85 %
09.01.2019 21:02 2,7 C 2,2 C 1,1 C 83 % 1020,1 hPa 0,0 l/m 0 min 0 min 0 W/m 16,1 km/h (3 Bft) 70,21 %
09.01.2019 21:04 2,7 C 2,2 C 1,1 C 83 % 1020,1 hPa 0,0 l/m 0 min 0 min 0 W/m 16,1 km/h (3 Bft) 80,85 %
09.01.2019 21:06 2,7 C 2,2 C 1,1 C 83 % 1020,2 hPa 0,0 l/m 0 min 0 min 0 W/m 12,9 km/h (3 Bft) 68,09 %
09.01.2019 21:08 2,7 C 2,2 C 1,1 C 83 % 1020,2 hPa 0,0 l/m 0 min 0 min 0 W/m 16,1 km/h (3 Bft) 91,30 %
09.01.2019 21:10 2,7 C 2,2 C 1,1 C 83 % 1020,2 hPa 0,0 l/m 0 min 0 min 0 W/m 12,9 km/h (3 Bft) 95,74 %
09.01.2019 21:12 2,7 C 2,2 C 1,1 C 84 % 1020,2 hPa 0,0 l/m 0 min 0 min 0 W/m 9,7 km/h (2 Bft) 89,36 %
09.01.2019 21:14 2,7 C 2,2 C 1,1 C 84 % 1020,3 hPa 0,0 l/m 0 min 0 min 0 W/m 16,1 km/h (3 Bft) 76,60 %
09.01.2019 21:16 2,6 C 2,2 C 1,1 C 84 % 1020,3 hPa 0,0 l/m 0 min 0 min 0 W/m 16,1 km/h (3 Bft) 76,60 %
09.01.2019 21:18 2,6 C 2,2 C 1,1 C 84 % 1020,3 hPa 0,0 l/m 0 min 0 min 0 W/m 25,7 km/h (4 Bft) 80,43 %
09.01.2019 21:20 2,6 C 2,2 C 1,1 C 84 % 1020,3 hPa 0,0 l/m 0 min 0 min 0 W/m 22,5 km/h (4 Bft) 80,85 %
09.01.2019 21:22 2,6 C 2,2 C 1,1 C 84 % 1020,3 hPa 0,0 l/m 0 min 0 min 0 W/m 16,1 km/h (3 Bft) 68,09 %
09.01.2019 21:24 2,6 C 2,2 C 1,1 C 84 % 1020,3 hPa 0,0 l/m 0 min 0 min 0 W/m 6,4 km/h (2 Bft) 68,09 %
09.01.2019 21:26 2,6 C 1,7 C 1,1 C 84 % 1020,3 hPa 0,0 l/m 0 min 0 min 0 W/m 6,4 km/h (2 Bft) 68,09 %
09.01.2019 21:28 2,6 C 1,7 C 1,1 C 84 % 1020,4 hPa 0,0 l/m 0 min 0 min 0 W/m 6,4 km/h (2 Bft) 65,96 %
09.01.2019 21:30 2,6 C 1,7 C 1,1 C 84 % 1020,5 hPa 0,0 l/m 0 min 0 min 0 W/m 9,7 km/h (2 Bft) 80,43 %
09.01.2019 21:32 2,6 C 1,7 C 1,1 C 84 % 1020,5 hPa 0,0 l/m 0 min 0 min 0 W/m 12,9 km/h (3 Bft) 85,11 %
09.01.2019 21:34 2,5 C 1,7 C 1,1 C 84 % 1020,4 hPa 0,0 l/m 0 min 0 min 0 W/m 9,7 km/h (2 Bft) 89,36 %
09.01.2019 21:36 2,5 C 1,7 C 1,1 C 84 % 1020,4 hPa 0,0 l/m 0 min 0 min 0 W/m 12,9 km/h (3 Bft) 82,98 %
09.01.2019 21:38 2,5 C 1,7 C 1,1 C 85 % 1020,5 hPa 0,0 l/m 0 min 0 min 0 W/m 9,7 km/h (2 Bft) 78,72 %
09.01.2019 21:40 2,5 C 1,7 C 1,1 C 85 % 1020,5 hPa 0,0 l/m 0 min 0 min 0 W/m 12,9 km/h (3 Bft) 85,11 %
09.01.2019 21:42 2,4 C 1,7 C 1,1 C 85 % 1020,5 hPa 0,0 l/m 0 min 0 min 0 W/m 12,9 km/h (3 Bft) 80,43 %
09.01.2019 21:44 2,4 C 1,7 C 1,1 C 85 % 1020,5 hPa 0,0 l/m 0 min 0 min 0 W/m 16,1 km/h (3 Bft) 80,85 %
09.01.2019 21:46 2,4 C 1,7 C 1,1 C 85 % 1020,5 hPa 0,0 l/m 0 min 0 min 0 W/m 9,7 km/h (2 Bft) 82,98 %
09.01.2019 21:48 2,4 C 1,7 C 1,1 C 85 % 1020,6 hPa 0,0 l/m 0 min 0 min 0 W/m 9,7 km/h (2 Bft) 95,74 %
09.01.2019 21:50 2,4 C 1,7 C 1,1 C 85 % 1020,7 hPa 0,0 l/m 0 min 0 min 0 W/m 12,9 km/h (3 Bft) 93,62 %
09.01.2019 21:52 2,4 C 1,7 C 1,1 C 85 % 1020,7 hPa 0,0 l/m 0 min 0 min 0 W/m 12,9 km/h (3 Bft) 87,23 %
09.01.2019 21:54 2,4 C 1,7 C 1,1 C 85 % 1020,7 hPa 0,0 l/m 0 min 0 min 0 W/m 12,9 km/h (3 Bft) 78,26 %
09.01.2019 21:56 2,4 C 1,7 C 1,1 C 85 % 1020,7 hPa 0,0 l/m 0 min 0 min 0 W/m 25,7 km/h (4 Bft) 85,42 %
09.01.2019 21:58 2,4 C 1,7 C 1,1 C 85 % 1020,8 hPa 0,0 l/m 0 min 0 min 0 W/m 22,5 km/h (4 Bft) 78,72 %
09.01.2019 22:00 2,3 C 1,7 C 1,1 C 85 % 1020,7 hPa 0,0 l/m 0 min 0 min 0 W/m 12,9 km/h (3 Bft) 80,43 %
09.01.2019 22:02 2,3 C 1,7 C 1,1 C 85 % 1020,8 hPa 0,0 l/m 0 min 0 min 0 W/m 12,9 km/h (3 Bft) 93,62 %
09.01.2019 22:04 2,3 C 1,7 C 1,1 C 85 % 1020,8 hPa 0,0 l/m 0 min 0 min 0 W/m 19,3 km/h (3 Bft) 89,36 %
09.01.2019 22:06 2,3 C 1,7 C 1,1 C 86 % 1020,8 hPa 0,0 l/m 0 min 0 min 0 W/m 9,7 km/h (2 Bft) 91,49 %
09.01.2019 22:08 2,3 C 1,7 C 1,1 C 86 % 1020,9 hPa 0,0 l/m 0 min 0 min 0 W/m 12,9 km/h (3 Bft) 95,74 %
09.01.2019 22:10 2,3 C 1,7 C 1,1 C 86 % 1020,8 hPa 0,0 l/m 0 min 0 min 0 W/m 9,7 km/h (2 Bft) 95,74 %
09.01.2019 22:12 2,3 C 1,7 C 1,1 C 86 % 1020,8 hPa 0,0 l/m 0 min 0 min 0 W/m 16,1 km/h (3 Bft) 95,65 %
09.01.2019 22:14 2,3 C 1,7 C 0,6 C 86 % 1020,9 hPa 0,0 l/m 0 min 0 min 0 W/m 6,4 km/h (2 Bft) 93,62 %
09.01.2019 22:16 2,3 C 1,1 C 0,6 C 86 % 1020,9 hPa 0,0 l/m 0 min 0 min 0 W/m 22,5 km/h (4 Bft) 97,87 %
09.01.2019 22:18 2,2 C 1,7 C 0,6 C 86 % 1020,9 hPa 0,0 l/m 0 min 0 min 0 W/m 35,4 km/h (5 Bft) 100,00 %
09.01.2019 22:20 2,2 C 1,7 C 0,6 C 86 % 1020,9 hPa 0,0 l/m 0 min 0 min 0 W/m 19,3 km/h (3 Bft) 100,00 %
09.01.2019 22:22 2,2 C 1,1 C 0,6 C 86 % 1020,8 hPa 0,0 l/m 0 min 0 min 0 W/m 16,1 km/h (3 Bft) 97,87 %
09.01.2019 22:24 2,2 C 1,1 C 0,6 C 86 % 1020,9 hPa 0,0 l/m 0 min 0 min 0 W/m 19,3 km/h (3 Bft) 100,00 %
09.01.2019 22:26 2,2 C 1,1 C 0,6 C 86 % 1020,9 hPa 0,0 l/m 0 min 0 min 0 W/m 22,5 km/h (4 Bft) 97,87 %
09.01.2019 22:28 2,1 C 1,1 C 0,6 C 86 % 1020,9 hPa 0,0 l/m 0 min 0 min 0 W/m 12,9 km/h (3 Bft) 100,00 %
09.01.2019 22:30 2,1 C 1,1 C 0,6 C 86 % 1020,9 hPa 0,0 l/m 0 min 0 min 0 W/m 19,3 km/h (3 Bft) 100,00 %
09.01.2019 22:32 2,1 C 1,1 C 0,6 C 86 % 1020,9 hPa 0,0 l/m 0 min 0 min 0 W/m 19,3 km/h (3 Bft) 97,87 %
09.01.2019 22:34 2,1 C 1,1 C 0,6 C 86 % 1021,0 hPa 0,0 l/m 0 min 0 min 0 W/m 12,9 km/h (3 Bft) 100,00 %
09.01.2019 22:36 2,0 C 1,1 C 0,6 C 86 % 1020,9 hPa 0,0 l/m 0 min 0 min 0 W/m 25,7 km/h (4 Bft) 100,00 %
09.01.2019 22:38 2,0 C 1,1 C 0,6 C 86 % 1021,0 hPa 0,0 l/m 0 min 0 min 0 W/m 19,3 km/h (3 Bft) 100,00 %
09.01.2019 22:40 2,0 C 1,1 C 0,6 C 86 % 1021,0 hPa 0,0 l/m 0 min 0 min 0 W/m 9,7 km/h (2 Bft) 100,00 %
09.01.2019 22:42 1,9 C 1,1 C 0,6 C 86 % 1021,0 hPa 0,0 l/m 0 min 0 min 0 W/m 25,7 km/h (4 Bft) 97,87 %
09.01.2019 22:44 1,9 C 1,1 C 0,6 C 86 % 1021,0 hPa 0,0 l/m 0 min 0 min 0 W/m 9,7 km/h (2 Bft) 100,00 %
09.01.2019 22:46 1,9 C 1,1 C 0,6 C 86 % 1021,0 hPa 0,0 l/m 0 min 0 min 0 W/m 12,9 km/h (3 Bft) 95,65 %
09.01.2019 22:48 1,9 C 1,1 C 0,6 C 86 % 1021,0 hPa 0,0 l/m 0 min 0 min 0 W/m 12,9 km/h (3 Bft) 100,00 %
09.01.2019 22:50 1,8 C 0,6 C 0,0 C 86 % 1020,9 hPa 0,0 l/m 0 min 0 min 0 W/m 9,7 km/h (2 Bft) 100,00 %
09.01.2019 22:52 1,8 C 0,6 C 0,0 C 86 % 1020,9 hPa 0,0 l/m 0 min 0 min 0 W/m 16,1 km/h (3 Bft) 100,00 %
09.01.2019 22:54 1,8 C 0,6 C 0,0 C 86 % 1021,0 hPa 0,0 l/m 0 min 0 min 0 W/m 9,7 km/h (2 Bft) 100,00 %
09.01.2019 22:56 1,7 C 0,6 C 0,0 C 86 % 1021,0 hPa 0,0 l/m 0 min 0 min 0 W/m 16,1 km/h (3 Bft) 100,00 %
09.01.2019 22:58 1,7 C 0,6 C 0,0 C 87 % 1021,0 hPa 0,0 l/m 0 min 0 min 0 W/m 12,9 km/h (3 Bft) 100,00 %
09.01.2019 23:00 1,7 C 0,0 C 0,0 C 87 % 1021,0 hPa 0,0 l/m 0 min 0 min 0 W/m 12,9 km/h (3 Bft) 97,87 %
09.01.2019 23:02 1,6 C 0,0 C -0,6 C 87 % 1021,1 hPa 0,0 l/m 0 min 0 min 0 W/m 16,1 km/h (3 Bft) 100,00 %
09.01.2019 23:04 1,6 C 0,0 C -0,6 C 87 % 1021,1 hPa 0,0 l/m 0 min 0 min 0 W/m 12,9 km/h (3 Bft) 97,87 %
09.01.2019 23:06 1,5 C 0,0 C -0,6 C 87 % 1021,1 hPa 0,0 l/m 0 min 0 min 0 W/m 9,7 km/h (2 Bft) 97,87 %
09.01.2019 23:08 1,4 C 0,0 C -0,6 C 87 % 1021,1 hPa 0,0 l/m 0 min 0 min 0 W/m 12,9 km/h (3 Bft) 100,00 %
09.01.2019 23:10 1,4 C 0,0 C -0,6 C 87 % 1021,1 hPa 0,0 l/m 0 min 0 min 0 W/m 12,9 km/h (3 Bft) 100,00 %
09.01.2019 23:12 1,4 C 0,0 C -0,6 C 87 % 1021,2 hPa 0,0 l/m 0 min 0 min 0 W/m 19,3 km/h (3 Bft) 97,87 %
09.01.2019 23:14 1,3 C 0,0 C -0,6 C 87 % 1021,2 hPa 0,0 l/m 0 min 0 min 0 W/m 6,4 km/h (2 Bft) 100,00 %
09.01.2019 23:16 1,3 C 0,0 C -0,6 C 87 % 1021,2 hPa 0,0 l/m 0 min 0 min 0 W/m 6,4 km/h (2 Bft) 100,00 %
09.01.2019 23:18 1,3 C 0,0 C -0,6 C 87 % 1021,2 hPa 0,0 l/m 0 min 0 min 0 W/m 6,4 km/h (2 Bft) 97,87 %
09.01.2019 23:20 1,2 C 0,0 C -0,6 C 87 % 1021,3 hPa 0,0 l/m 0 min 0 min 0 W/m 6,4 km/h (2 Bft) 95,74 %
09.01.2019 23:22 1,2 C 0,0 C -0,6 C 88 % 1021,3 hPa 0,0 l/m 0 min 0 min 0 W/m 16,1 km/h (3 Bft) 97,83 %
09.01.2019 23:24 1,2 C 0,0 C -0,6 C 88 % 1021,4 hPa 0,0 l/m 0 min 0 min 0 W/m 9,7 km/h (2 Bft) 95,74 %
09.01.2019 23:26 1,1 C 0,0 C -0,6 C 88 % 1021,4 hPa 0,0 l/m 0 min 0 min 0 W/m 9,7 km/h (2 Bft) 97,87 %
09.01.2019 23:28 1,1 C 0,0 C -0,6 C 88 % 1021,4 hPa 0,0 l/m 0 min 0 min 0 W/m 6,4 km/h (2 Bft) 95,74 %
09.01.2019 23:30 1,1 C 0,0 C -0,6 C 88 % 1021,4 hPa 0,0 l/m 0 min 0 min 0 W/m 12,9 km/h (3 Bft) 97,87 %
09.01.2019 23:32 1,0 C 0,0 C -0,6 C 88 % 1021,4 hPa 0,0 l/m 0 min 0 min 0 W/m 9,7 km/h (2 Bft) 97,87 %
09.01.2019 23:34 1,0 C 0,0 C -0,6 C 88 % 1021,4 hPa 0,0 l/m 0 min 0 min 0 W/m 0,0 km/h (0 Bft) 93,48 %
09.01.2019 23:36 0,9 C 0,0 C -0,6 C 88 % 1021,5 hPa 0,0 l/m 0 min 0 min 0 W/m 6,4 km/h (2 Bft) 95,74 %
09.01.2019 23:38 0,9 C 0,0 C -0,6 C 88 % 1021,5 hPa 0,0 l/m 0 min 0 min 0 W/m 3,2 km/h (1 Bft) 95,74 %
09.01.2019 23:40 0,9 C 0,0 C -0,6 C 88 % 1021,5 hPa 0,0 l/m 0 min 0 min 0 W/m 6,4 km/h (2 Bft) 95,74 %
09.01.2019 23:42 0,9 C 0,0 C -0,6 C 88 % 1021,5 hPa 0,0 l/m 0 min 0 min 0 W/m 9,7 km/h (2 Bft) 95,74 %
09.01.2019 23:44 0,9 C 0,0 C -0,6 C 88 % 1021,5 hPa 0,0 l/m 0 min 0 min 0 W/m 6,4 km/h (2 Bft) 97,83 %
09.01.2019 23:46 0,9 C 0,0 C -0,6 C 88 % 1021,5 hPa 0,0 l/m 0 min 0 min 0 W/m 6,4 km/h (2 Bft) 94,12 %
09.01.2019 23:48 0,9 C 0,0 C -0,6 C 88 % 1021,6 hPa 0,0 l/m 0 min 0 min 0 W/m 6,4 km/h (2 Bft) 95,12 %
09.01.2019 23:50 0,9 C 0,0 C -0,6 C 89 % 1021,5 hPa 0,0 l/m 0 min 0 min 0 W/m 6,4 km/h (2 Bft) 95,74 %
09.01.2019 23:52 0,8 C 0,0 C -0,6 C 89 % 1021,5 hPa 0,0 l/m 0 min 0 min 0 W/m 6,4 km/h (2 Bft) 95,74 %
09.01.2019 23:54 0,8 C 0,0 C -0,6 C 89 % 1021,5 hPa 0,0 l/m 0 min 0 min 0 W/m 6,4 km/h (2 Bft) 97,87 %
09.01.2019 23:56 0,8 C 0,0 C -0,6 C 89 % 1021,5 hPa 0,0 l/m 0 min 0 min 0 W/m 3,2 km/h (1 Bft) 93,48 %
09.01.2019 23:58 0,8 C 0,0 C -0,6 C 89 % 1021,5 hPa 0,0 l/m 0 min 0 min 0 W/m 3,2 km/h (1 Bft) 93,62 %
_ Min-Zeit 23:52 23:00 23:02 15:32 00:16 - - - - 08:20 08:10
Minimum _ 0,8 C 0,0 C -0,6 C 71 % 1013,8 hPa - - - - 0,0 km/h (0 Bft) 40,00 %
_ Max-Zeit 12:44 12:02 12:36 08:56 23:48 15:06 12:08 00:20 12:44 13:18 00:32
Maximum _ 6,4 C 12,2 C 9,4 C 96 % 1021,6 hPa 0,2 l/m 4 min 2 min 323 W/m 57,9 km/h
N-NW (7 Bft)
100,00 %
Durchschnitt _ 3,6 C 3,8 C 2,3 C 86 % 1016,6 hPa #0,2 l/m #3:26 h #56 min. 123 W/m 19,4 km/h (3 Bft) 95,46 %
© 2019 W. Hausmann